Time,TemperatureF,DewpointF,PressureIn,WindDirection,WindDirectionDegrees,WindSpeedMPH,WindSpeedGustMPH,Humidity,HourlyPrecipIn,Conditions,Clouds,dailyrainin,SoftwareType,DateUTC
2013-02-01 00:00:00,-0.4,-6.1,30.03,SW,229,0.0,1.0,76,0.00,,SCT035,0.00,VWS V12.07,2013-02-01 06:00:00,
2013-02-01 00:02:00,-0.4,-6.1,30.03,SW,229,0.0,1.0,76,0.00,,SCT035,0.00,VWS V12.07,2013-02-01 06:02:00,
2013-02-01 00:03:00,-0.6,-6.3,30.03,SW,229,0.0,1.0,76,0.00,,SCT035,0.00,VWS V12.07,2013-02-01 06:03:00,
2013-02-01 00:06:00,-0.6,-6.3,30.03,SW,229,0.0,1.0,76,0.00,,SCT035,0.00,VWS V12.07,2013-02-01 06:06:00,
2013-02-01 00:07:00,-0.6,-6.3,30.03,SW,229,0.0,1.0,76,0.00,,SCT035,0.00,VWS V12.07,2013-02-01 06:07:00,
2013-02-01 00:08:00,-0.6,-6.3,30.03,SW,229,0.0,0.0,76,0.00,,SCT035,0.00,VWS V12.07,2013-02-01 06:08:00,
2013-02-01 00:09:00,-0.6,-6.3,30.03,SW,229,1.0,1.0,76,0.00,,SCT035,0.00,VWS V12.07,2013-02-01 06:09:00,
2013-02-01 00:12:00,-0.6,-6.1,30.03,SW,229,0.0,1.0,77,0.00,,SCT035,0.00,VWS V12.07,2013-02-01 06:12:00,
2013-02-01 00:13:00,-0.6,-6.1,30.03,SW,229,0.0,1.0,77,0.00,,SCT035,0.00,VWS V12.07,2013-02-01 06:13:00,
2013-02-01 00:14:00,-0.6,-6.1,30.03,ESE,113,0.0,1.0,77,0.00,,SCT035,0.00,VWS V12.07,2013-02-01 06:14:00,
2013-02-01 00:17:00,-0.6,-6.1,30.05,ESE,113,0.0,1.0,77,0.00,,SCT035,0.00,VWS V12.07,2013-02-01 06:17:00,
2013-02-01 00:18:00,-0.6,-6.1,30.05,ESE,113,0.0,1.0,77,0.00,,SCT035,0.00,VWS V12.07,2013-02-01 06:18:00,
2013-02-01 00:19:00,-0.6,-6.1,30.05,ESE,113,0.0,1.0,77,0.00,,SCT035,0.00,VWS V12.07,2013-02-01 06:19:00,
2013-02-01 00:23:00,-0.8,-6.3,30.05,ESE,113,0.0,1.0,77,0.00,,SCT035,0.00,VWS V12.07,2013-02-01 06:23:00,
2013-02-01 00:24:00,-0.8,-6.3,30.05,WSW,243,0.0,2.0,77,0.00,,SCT035,0.00,VWS V12.07,2013-02-01 06:24:00,
2013-02-01 00:28:00,-0.8,-6.5,30.05,WSW,243,0.0,2.0,76,0.00,,SCT035,0.00,VWS V12.07,2013-02-01 06:28:00,
2013-02-01 00:29:00,-1.0,-6.7,30.05,WSW,243,0.0,1.0,76,0.00,,SCT035,0.00,VWS V12.07,2013-02-01 06:29:00,
2013-02-01 00:33:00,-1.0,-6.5,30.05,WSW,243,0.0,1.0,77,0.00,,SCT035,0.00,VWS V12.07,2013-02-01 06:33:00,
2013-02-01 00:34:00,-1.0,-6.5,30.05,WSW,243,0.0,1.0,77,0.00,,SCT033,0.00,VWS V12.07,2013-02-01 06:34:00,
2013-02-01 00:35:00,-1.0,-6.5,30.05,WSW,243,0.0,1.0,77,0.00,,SCT033,0.00,VWS V12.07,2013-02-01 06:35:00,
2013-02-01 00:38:00,-1.2,-6.7,30.05,WSW,243,0.0,0.0,77,0.00,,SCT033,0.00,VWS V12.07,2013-02-01 06:38:00,
2013-02-01 00:39:00,-1.2,-6.7,30.05,WSW,243,0.0,1.0,77,0.00,,SCT033,0.00,VWS V12.07,2013-02-01 06:39:00,
2013-02-01 00:40:00,-1.4,-6.8,30.05,WSW,243,0.0,1.0,77,0.00,,SCT033,0.00,VWS V12.07,2013-02-01 06:40:00,
2013-02-01 00:43:00,-1.4,-6.8,30.05,WSW,243,0.0,1.0,77,0.00,,SCT033,0.00,VWS V12.07,2013-02-01 06:43:00,
2013-02-01 00:44:00,-1.4,-6.8,30.05,WSW,243,0.0,1.0,77,0.00,,SCT033,0.00,VWS V12.07,2013-02-01 06:44:00,
2013-02-01 00:45:00,-1.4,-6.8,30.05,WSW,243,0.0,1.0,77,0.00,,SCT033,0.00,VWS V12.07,2013-02-01 06:45:00,
2013-02-01 00:48:00,-1.6,-7.0,30.05,West,266,0.0,1.0,77,0.00,,CLR,0.00,VWS V12.07,2013-02-01 06:48:00,
2013-02-01 00:49:00,-1.6,-7.0,30.05,West,266,0.0,1.0,77,0.00,,CLR,0.00,VWS V12.07,2013-02-01 06:49:00,
2013-02-01 00:50:00,-1.6,-7.0,30.05,West,266,0.0,1.0,77,0.00,,CLR,0.00,VWS V12.07,2013-02-01 06:50:00,
2013-02-01 00:53:00,-1.6,-7.0,30.05,West,266,0.0,1.0,77,0.00,,CLR,0.00,VWS V12.07,2013-02-01 06:53:00,
2013-02-01 00:54:00,-1.6,-7.0,30.05,West,266,0.0,1.0,77,0.00,,CLR,0.00,VWS V12.07,2013-02-01 06:54:00,
2013-02-01 00:55:00,-1.6,-7.0,30.05,West,266,0.0,1.0,77,0.00,,CLR,0.00,VWS V12.07,2013-02-01 06:55:00,
2013-02-01 00:59:00,-1.6,-7.0,30.05,West,266,0.0,1.0,77,0.00,,CLR,0.00,VWS V12.07,2013-02-01 06:59:00,
2013-02-01 01:00:00,-1.6,-7.0,30.05,West,266,0.0,1.0,77,0.00,,CLR,0.00,VWS V12.07,2013-02-01 07:00:00,
2013-02-01 01:01:00,-1.6,-7.0,30.05,West,266,0.0,1.0,77,0.00,,CLR,0.00,VWS V12.07,2013-02-01 07:01:00,
2013-02-01 01:04:00,-1.6,-7.0,30.05,West,266,0.0,1.0,77,0.00,,CLR,0.00,VWS V12.07,2013-02-01 07:04:00,
2013-02-01 01:05:00,-1.6,-7.0,30.05,West,266,0.0,1.0,77,0.00,,CLR,0.00,VWS V12.07,2013-02-01 07:05:00,
2013-02-01 01:06:00,-1.6,-7.0,30.05,West,266,0.0,1.0,77,0.00,,CLR,0.00,VWS V12.07,2013-02-01 07:06:00,
2013-02-01 01:10:00,-1.6,-7.0,30.05,West,266,0.0,1.0,77,0.00,,CLR,0.00,VWS V12.07,2013-02-01 07:10:00,
2013-02-01 01:11:00,-1.4,-6.8,30.05,West,266,0.0,1.0,77,0.00,,CLR,0.00,VWS V12.07,2013-02-01 07:11:00,
2013-02-01 01:15:00,-1.4,-6.8,30.05,West,266,0.0,1.0,77,0.00,,CLR,0.00,VWS V12.07,2013-02-01 07:15:00,
2013-02-01 01:16:00,-1.4,-6.8,30.05,West,266,0.0,1.0,77,0.00,,CLR,0.00,VWS V12.07,2013-02-01 07:16:00,
2013-02-01 01:20:00,-1.6,-7.0,30.05,West,266,0.0,1.0,77,0.00,,CLR,0.00,VWS V12.07,2013-02-01 07:20:00,
2013-02-01 01:21:00,-1.6,-7.0,30.05,West,266,0.0,1.0,77,0.00,,CLR,0.00,VWS V12.07,2013-02-01 07:21:00,
2013-02-01 01:22:00,-1.6,-7.0,30.05,West,266,1.0,1.0,77,0.00,,CLR,0.00,VWS V12.07,2013-02-01 07:22:00,
2013-02-01 01:25:00,-1.6,-7.0,30.05,WSW,253,1.0,1.0,77,0.00,,CLR,0.00,VWS V12.07,2013-02-01 07:25:00,
2013-02-01 01:26:00,-1.6,-7.0,30.05,WSW,254,0.0,1.0,77,0.00,,CLR,0.00,VWS V12.07,2013-02-01 07:26:00,
2013-02-01 01:27:00,-1.6,-7.0,30.05,WSW,254,0.0,1.0,77,0.00,,CLR,0.00,VWS V12.07,2013-02-01 07:27:00,
2013-02-01 01:30:00,-1.6,-7.0,30.06,WSW,254,0.0,0.0,77,0.00,,CLR,0.00,VWS V12.07,2013-02-01 07:30:00,
2013-02-01 01:31:00,-1.6,-7.0,30.06,WSW,254,0.0,0.0,77,0.00,,CLR,0.00,VWS V12.07,2013-02-01 07:31:00,
2013-02-01 01:32:00,-1.8,-7.2,30.06,WSW,254,0.0,0.0,77,0.00,,CLR,0.00,VWS V12.07,2013-02-01 07:32:00,
2013-02-01 01:36:00,-1.8,-7.2,30.06,WSW,254,0.0,1.0,77,0.00,,BKN027,0.00,VWS V12.07,2013-02-01 07:36:00,
2013-02-01 01:38:00,-1.8,-7.2,30.06,WSW,254,0.0,1.0,77,0.00,,BKN027,0.00,VWS V12.07,2013-02-01 07:38:00,
2013-02-01 01:41:00,-1.8,-7.2,30.06,WSW,254,0.0,1.0,77,0.00,,BKN027,0.00,VWS V12.07,2013-02-01 07:41:00,
2013-02-01 01:42:00,-2.0,-7.4,30.06,WSW,254,0.0,1.0,77,0.00,,BKN027,0.00,VWS V12.07,2013-02-01 07:42:00,
2013-02-01 01:43:00,-2.0,-7.4,30.06,WSW,254,0.0,1.0,77,0.00,,BKN027,0.00,VWS V12.07,2013-02-01 07:43:00,
2013-02-01 01:46:00,-2.0,-7.4,30.07,WSW,254,0.0,1.0,77,0.00,,BKN027,0.00,VWS V12.07,2013-02-01 07:46:00,
2013-02-01 01:47:00,-2.0,-7.4,30.07,WSW,254,0.0,1.0,77,0.00,,BKN027,0.00,VWS V12.07,2013-02-01 07:47:00,
2013-02-01 01:48:00,-2.0,-7.4,30.07,WSW,254,0.0,1.0,77,0.00,,BKN027,0.00,VWS V12.07,2013-02-01 07:48:00,
2013-02-01 01:52:00,-2.0,-7.4,30.07,WSW,254,0.0,1.0,77,0.00,,BKN027,0.00,VWS V12.07,2013-02-01 07:52:00,
2013-02-01 01:53:00,-2.0,-7.4,30.07,West,278,0.0,1.0,77,0.00,,BKN027,0.00,VWS V12.07,2013-02-01 07:53:00,
2013-02-01 01:54:00,-2.0,-7.4,30.07,West,266,0.0,2.0,77,0.00,,BKN027,0.00,VWS V12.07,2013-02-01 07:54:00,
2013-02-01 01:57:00,-1.8,-7.2,30.07,West,274,0.0,2.0,77,0.00,,BKN027,0.00,VWS V12.07,2013-02-01 07:57:00,
2013-02-01 01:58:00,-1.8,-7.2,30.07,West,274,1.0,2.0,77,0.00,,BKN027,0.00,VWS V12.07,2013-02-01 07:58:00,
2013-02-01 02:00:00,-1.8,-7.2,30.07,West,274,0.0,2.0,77,0.00,,BKN027,0.00,VWS V12.07,2013-02-01 08:00:00,
2013-02-01 02:02:00,-1.8,-7.2,30.07,West,274,0.0,2.0,77,0.00,,BKN027,0.00,VWS V12.07,2013-02-01 08:02:00,
2013-02-01 02:03:00,-1.8,-7.2,30.07,West,274,0.0,2.0,77,0.00,,BKN027,0.00,VWS V12.07,2013-02-01 08:03:00,
2013-02-01 02:05:00,-1.8,-7.2,30.07,West,274,0.0,1.0,77,0.00,,BKN027,0.00,VWS V12.07,2013-02-01 08:05:00,
2013-02-01 02:08:00,-1.8,-7.2,30.07,West,274,0.0,1.0,77,0.00,,BKN027,0.00,VWS V12.07,2013-02-01 08:08:00,
2013-02-01 02:10:00,-1.8,-7.2,30.07,West,274,0.0,1.0,77,0.00,,BKN027,0.00,VWS V12.07,2013-02-01 08:10:00,
2013-02-01 02:13:00,-1.8,-7.2,30.07,West,274,0.0,1.0,77,0.00,,BKN027,0.00,VWS V12.07,2013-02-01 08:13:00,
2013-02-01 02:15:00,-1.8,-7.2,30.08,West,274,0.0,1.0,77,0.00,,BKN027,0.00,VWS V12.07,2013-02-01 08:15:00,
2013-02-01 02:18:00,-1.8,-7.2,30.08,WNW,289,0.0,1.0,77,0.00,,BKN027,0.00,VWS V12.07,2013-02-01 08:18:00,
2013-02-01 02:20:00,-1.8,-7.2,30.08,WNW,289,0.0,1.0,77,0.00,,BKN027,0.00,VWS V12.07,2013-02-01 08:20:00,
2013-02-01 02:23:00,-1.8,-7.5,30.08,WNW,289,0.0,1.0,76,0.00,,BKN027,0.00,VWS V12.07,2013-02-01 08:23:00,
2013-02-01 02:24:00,-1.8,-7.5,30.08,WNW,289,0.0,1.0,76,0.00,,BKN027,0.00,VWS V12.07,2013-02-01 08:24:00,
2013-02-01 02:25:00,-1.8,-7.5,30.08,WNW,289,0.0,1.0,76,0.00,,BKN027,0.00,VWS V12.07,2013-02-01 08:25:00,
2013-02-01 02:28:00,-1.8,-7.5,30.08,WNW,289,0.0,0.0,76,0.00,,BKN027,0.00,VWS V12.07,2013-02-01 08:28:00,
2013-02-01 02:29:00,-1.8,-7.5,30.08,WNW,289,0.0,0.0,76,0.00,,BKN027,0.00,VWS V12.07,2013-02-01 08:29:00,
2013-02-01 02:30:00,-1.8,-7.5,30.09,WSW,254,0.0,1.0,76,0.00,,BKN027,0.00,VWS V12.07,2013-02-01 08:30:00,
2013-02-01 02:33:00,-1.8,-7.5,30.09,WSW,249,1.0,1.0,76,0.00,,BKN027,0.00,VWS V12.07,2013-02-01 08:33:00,
2013-02-01 02:34:00,-1.8,-7.5,30.09,WSW,249,1.0,1.0,76,0.00,,BKN027,0.00,VWS V12.07,2013-02-01 08:34:00,
2013-02-01 02:36:00,-1.8,-7.5,30.09,WSW,243,1.0,1.0,76,0.00,,OVC027,0.00,VWS V12.07,2013-02-01 08:36:00,
2013-02-01 02:38:00,-2.0,-7.7,30.09,WSW,243,0.0,2.0,76,0.00,,OVC027,0.00,VWS V12.07,2013-02-01 08:38:00,
2013-02-01 02:39:00,-2.0,-7.7,30.09,WSW,243,0.0,2.0,76,0.00,,OVC027,0.00,VWS V12.07,2013-02-01 08:39:00,
2013-02-01 02:41:00,-2.0,-7.7,30.09,WSW,243,0.0,2.0,76,0.00,,OVC027,0.00,VWS V12.07,2013-02-01 08:41:00,
2013-02-01 02:44:00,-2.0,-7.7,30.09,WSW,248,1.0,2.0,76,0.00,,OVC027,0.00,VWS V12.07,2013-02-01 08:44:00,
2013-02-01 02:46:00,-2.2,-7.9,30.09,West,259,0.0,2.0,76,0.00,,OVC027,0.00,VWS V12.07,2013-02-01 08:46:00,
2013-02-01 02:49:00,-2.2,-7.9,30.09,West,259,0.0,1.0,76,0.00,,OVC027,0.00,VWS V12.07,2013-02-01 08:49:00,
2013-02-01 02:51:00,-2.2,-7.9,30.09,West,259,0.0,1.0,76,0.00,,OVC027,0.00,VWS V12.07,2013-02-01 08:51:00,
2013-02-01 02:54:00,-2.4,-8.1,30.09,SW,224,1.0,1.0,76,0.00,,OVC027,0.00,VWS V12.07,2013-02-01 08:54:00,
2013-02-01 02:55:00,-2.4,-8.1,30.09,SW,224,0.0,1.0,76,0.00,,OVC027,0.00,VWS V12.07,2013-02-01 08:55:00,
2013-02-01 02:56:00,-2.4,-8.1,30.09,WSW,243,0.0,2.0,76,0.00,,OVC027,0.00,VWS V12.07,2013-02-01 08:56:00,
2013-02-01 03:00:00,-2.6,-8.3,30.09,WSW,243,0.0,2.0,76,0.00,,OVC027,0.00,VWS V12.07,2013-02-01 09:00:00,
2013-02-01 03:02:00,-2.6,-8.3,30.09,WSW,243,0.0,2.0,76,0.00,,OVC027,0.00,VWS V12.07,2013-02-01 09:02:00,
2013-02-01 03:05:00,-2.8,-8.5,30.09,SW,216,0.0,2.0,76,0.00,,OVC027,0.00,VWS V12.07,2013-02-01 09:05:00,
2013-02-01 03:07:00,-2.8,-8.5,30.09,SW,216,0.0,2.0,76,0.00,,OVC027,0.00,VWS V12.07,2013-02-01 09:07:00,
2013-02-01 03:10:00,-3.1,-8.8,30.09,SW,216,0.0,1.0,76,0.00,,OVC027,0.00,VWS V12.07,2013-02-01 09:10:00,
2013-02-01 03:11:00,-3.1,-8.8,30.09,SW,216,0.0,1.0,76,0.00,,OVC027,0.00,VWS V12.07,2013-02-01 09:11:00,
2013-02-01 03:12:00,-3.1,-8.8,30.09,West,266,0.0,1.0,76,0.00,,OVC027,0.00,VWS V12.07,2013-02-01 09:12:00,
2013-02-01 03:15:00,-3.3,-9.0,30.10,West,266,0.0,1.0,76,0.00,,OVC027,0.00,VWS V12.07,2013-02-01 09:15:00,
2013-02-01 03:16:00,-3.3,-9.0,30.10,West,266,0.0,1.0,76,0.00,,OVC027,0.00,VWS V12.07,2013-02-01 09:16:00,
2013-02-01 03:17:00,-3.3,-9.0,30.10,SSW,206,1.0,1.0,76,0.00,,OVC027,0.00,VWS V12.07,2013-02-01 09:17:00,
2013-02-01 03:20:00,-3.3,-9.0,30.10,SSW,207,1.0,1.0,76,0.00,,BKN027,0.00,VWS V12.07,2013-02-01 09:20:00,
2013-02-01 03:21:00,-3.3,-9.0,30.10,WSW,257,0.0,2.0,76,0.00,,BKN027,0.00,VWS V12.07,2013-02-01 09:21:00,
2013-02-01 03:22:00,-3.3,-9.0,30.10,WSW,257,0.0,2.0,76,0.00,,BKN027,0.00,VWS V12.07,2013-02-01 09:22:00,
2013-02-01 03:25:00,-3.5,-9.1,30.10,West,262,0.0,2.0,76,0.00,,BKN027,0.00,VWS V12.07,2013-02-01 09:25:00,
2013-02-01 03:26:00,-3.5,-9.1,30.10,West,262,0.0,2.0,76,0.00,,BKN027,0.00,VWS V12.07,2013-02-01 09:26:00,
2013-02-01 03:27:00,-3.5,-9.1,30.10,West,262,0.0,2.0,76,0.00,,BKN027,0.00,VWS V12.07,2013-02-01 09:27:00,
2013-02-01 03:30:00,-3.5,-9.4,30.11,WSW,247,1.0,2.0,75,0.00,,BKN027,0.00,VWS V12.07,2013-02-01 09:30:00,
2013-02-01 03:31:00,-3.5,-9.4,30.11,WSW,247,0.0,2.0,75,0.00,,BKN027,0.00,VWS V12.07,2013-02-01 09:31:00,
2013-02-01 03:32:00,-3.5,-9.4,30.11,WSW,247,0.0,2.0,75,0.00,,BKN027,0.00,VWS V12.07,2013-02-01 09:32:00,
2013-02-01 03:36:00,-3.7,-9.6,30.11,WSW,248,0.0,3.0,75,0.00,,SCT027,0.00,VWS V12.07,2013-02-01 09:36:00,
2013-02-01 03:37:00,-3.7,-9.6,30.11,WSW,248,0.0,3.0,75,0.00,,SCT027,0.00,VWS V12.07,2013-02-01 09:37:00,
2013-02-01 03:38:00,-3.7,-9.6,30.11,WSW,246,0.0,3.0,75,0.00,,SCT027,0.00,VWS V12.07,2013-02-01 09:38:00,
2013-02-01 03:41:00,-3.7,-9.4,30.11,SW,220,0.0,1.0,76,0.00,,SCT027,0.00,VWS V12.07,2013-02-01 09:41:00,
2013-02-01 03:42:00,-3.7,-9.4,30.11,WSW,248,2.0,2.0,76,0.00,,SCT027,0.00,VWS V12.07,2013-02-01 09:42:00,
2013-02-01 03:43:00,-3.7,-9.6,30.11,SW,229,0.0,2.0,75,0.00,,SCT027,0.00,VWS V12.07,2013-02-01 09:43:00,
2013-02-01 03:47:00,-3.9,-9.8,30.12,West,264,0.0,2.0,75,0.00,,SCT027,0.00,VWS V12.07,2013-02-01 09:47:00,
2013-02-01 03:48:00,-3.9,-9.8,30.12,West,264,0.0,2.0,75,0.00,,SCT027,0.00,VWS V12.07,2013-02-01 09:48:00,
2013-02-01 03:52:00,-3.9,-9.8,30.12,West,264,0.0,1.0,75,0.00,,SCT026,0.00,VWS V12.07,2013-02-01 09:52:00,
2013-02-01 03:53:00,-3.9,-9.8,30.12,West,264,0.0,1.0,75,0.00,,SCT026,0.00,VWS V12.07,2013-02-01 09:53:00,
2013-02-01 03:57:00,-4.1,-10.0,30.12,SW,225,1.0,2.0,75,0.00,,SCT026,0.00,VWS V12.07,2013-02-01 09:57:00,
2013-02-01 03:58:00,-4.1,-10.0,30.12,SW,225,0.0,2.0,75,0.00,,SCT026,0.00,VWS V12.07,2013-02-01 09:58:00,
2013-02-01 04:02:00,-4.1,-10.0,30.13,West,263,0.0,4.0,75,0.00,,SCT026,0.00,VWS V12.07,2013-02-01 10:02:00,
2013-02-01 04:03:00,-4.1,-10.0,30.13,West,263,0.0,4.0,75,0.00,,SCT026,0.00,VWS V12.07,2013-02-01 10:03:00,
2013-02-01 04:07:00,-4.3,-10.2,30.13,SSW,196,0.0,4.0,75,0.00,,SCT026,0.00,VWS V12.07,2013-02-01 10:07:00,
2013-02-01 04:08:00,-4.3,-10.2,30.13,SSW,196,0.0,1.0,75,0.00,,SCT026,0.00,VWS V12.07,2013-02-01 10:08:00,
2013-02-01 04:09:00,-4.3,-10.2,30.13,SSW,196,0.0,1.0,75,0.00,,SCT026,0.00,VWS V12.07,2013-02-01 10:09:00,
2013-02-01 04:12:00,-4.3,-10.2,30.13,SW,231,0.0,2.0,75,0.00,,SCT026,0.00,VWS V12.07,2013-02-01 10:12:00,
2013-02-01 04:13:00,-4.3,-10.2,30.13,SW,231,0.0,2.0,75,0.00,,SCT026,0.00,VWS V12.07,2013-02-01 10:13:00,
2013-02-01 04:14:00,-4.3,-10.2,30.13,SW,231,0.0,2.0,75,0.00,,SCT026,0.00,VWS V12.07,2013-02-01 10:14:00,
2013-02-01 04:18:00,-4.3,-10.2,30.13,SW,231,0.0,2.0,75,0.00,,SCT026,0.00,VWS V12.07,2013-02-01 10:18:00,
2013-02-01 04:19:00,-4.6,-10.5,30.13,SW,231,0.0,0.0,75,0.00,,SCT026,0.00,VWS V12.07,2013-02-01 10:19:00,
2013-02-01 04:20:00,-4.6,-10.5,30.13,SW,231,0.0,1.0,75,0.00,,SCT026,0.00,VWS V12.07,2013-02-01 10:20:00,
2013-02-01 04:23:00,-4.6,-10.5,30.13,SW,231,0.0,1.0,75,0.00,,SCT026,0.00,VWS V12.07,2013-02-01 10:23:00,
2013-02-01 04:24:00,-4.6,-10.5,30.13,SW,231,0.0,1.0,75,0.00,,SCT026,0.00,VWS V12.07,2013-02-01 10:24:00,
2013-02-01 04:25:00,-4.6,-10.5,30.13,SW,226,0.0,3.0,75,0.00,,SCT026,0.00,VWS V12.07,2013-02-01 10:25:00,
2013-02-01 04:28:00,-4.8,-10.7,30.13,West,262,0.0,3.0,75,0.00,,SCT026,0.00,VWS V12.07,2013-02-01 10:28:00,
2013-02-01 04:29:00,-4.8,-10.7,30.13,West,262,0.0,2.0,75,0.00,,SCT026,0.00,VWS V12.07,2013-02-01 10:29:00,
2013-02-01 04:30:00,-4.8,-10.7,30.14,West,262,0.0,2.0,75,0.00,,SCT026,0.00,VWS V12.07,2013-02-01 10:30:00,
2013-02-01 04:33:00,-4.8,-10.7,30.14,West,262,0.0,2.0,75,0.00,,SCT026,0.00,VWS V12.07,2013-02-01 10:33:00,
2013-02-01 04:34:00,-5.0,-10.9,30.14,West,262,0.0,2.0,75,0.00,,CLR,0.00,VWS V12.07,2013-02-01 10:34:00,
2013-02-01 04:35:00,-5.0,-10.9,30.14,West,262,0.0,2.0,75,0.00,,CLR,0.00,VWS V12.07,2013-02-01 10:35:00,
2013-02-01 04:38:00,-5.0,-10.9,30.14,West,262,0.0,1.0,75,0.00,,CLR,0.00,VWS V12.07,2013-02-01 10:38:00,
2013-02-01 04:39:00,-5.0,-10.9,30.14,West,262,1.0,1.0,75,0.00,,CLR,0.00,VWS V12.07,2013-02-01 10:39:00,
2013-02-01 04:40:00,-5.0,-10.9,30.14,WSW,252,0.0,1.0,75,0.00,,CLR,0.00,VWS V12.07,2013-02-01 10:40:00,
2013-02-01 04:43:00,-5.2,-11.1,30.14,WSW,252,0.0,1.0,75,0.00,,CLR,0.00,VWS V12.07,2013-02-01 10:43:00,
2013-02-01 04:44:00,-5.2,-11.3,30.14,WSW,252,0.0,1.0,74,0.00,,CLR,0.00,VWS V12.07,2013-02-01 10:44:00,
2013-02-01 04:45:00,-5.2,-11.3,30.14,WSW,252,0.0,1.0,74,0.00,,CLR,0.00,VWS V12.07,2013-02-01 10:45:00,
2013-02-01 04:48:00,-5.4,-11.5,30.14,West,269,0.0,3.0,74,0.00,,CLR,0.00,VWS V12.07,2013-02-01 10:48:00,
2013-02-01 04:49:00,-5.4,-11.5,30.14,West,269,0.0,3.0,74,0.00,,CLR,0.00,VWS V12.07,2013-02-01 10:49:00,
2013-02-01 04:50:00,-5.4,-11.5,30.14,West,269,0.0,3.0,74,0.00,,CLR,0.00,VWS V12.07,2013-02-01 10:50:00,
2013-02-01 04:53:00,-5.6,-11.7,30.14,West,269,1.0,3.0,74,0.00,,CLR,0.00,VWS V12.07,2013-02-01 10:53:00,
2013-02-01 04:54:00,-5.6,-11.7,30.14,West,269,0.0,3.0,74,0.00,,CLR,0.00,VWS V12.07,2013-02-01 10:54:00,
2013-02-01 04:55:00,-5.6,-11.7,30.14,SW,221,0.0,3.0,74,0.00,,CLR,0.00,VWS V12.07,2013-02-01 10:55:00,
2013-02-01 04:59:00,-5.9,-12.0,30.14,WSW,251,0.0,1.0,74,0.00,,CLR,0.00,VWS V12.07,2013-02-01 10:59:00,
2013-02-01 05:00:00,-6.1,-12.2,30.16,WSW,251,0.0,1.0,74,0.00,,CLR,0.00,VWS V12.07,2013-02-01 11:00:00,
2013-02-01 05:01:00,-6.1,-12.2,30.16,WSW,251,0.0,1.0,74,0.00,,CLR,0.00,VWS V12.07,2013-02-01 11:01:00,
2013-02-01 05:04:00,-6.1,-12.2,30.16,WNW,287,0.0,1.0,74,0.00,,CLR,0.00,VWS V12.07,2013-02-01 11:04:00,
2013-02-01 05:05:00,-6.3,-12.7,30.16,WNW,287,0.0,1.0,73,0.00,,CLR,0.00,VWS V12.07,2013-02-01 11:05:00,
2013-02-01 05:07:00,-6.3,-12.7,30.16,WSW,257,0.0,2.0,73,0.00,,CLR,0.00,VWS V12.07,2013-02-01 11:07:00,
2013-02-01 05:09:00,-6.3,-12.7,30.16,WSW,257,0.0,2.0,73,0.00,,CLR,0.00,VWS V12.07,2013-02-01 11:09:00,
2013-02-01 05:10:00,-6.5,-12.9,30.16,WSW,257,0.0,2.0,73,0.00,,CLR,0.00,VWS V12.07,2013-02-01 11:10:00,
2013-02-01 05:11:00,-6.5,-12.9,30.16,WNW,293,0.0,2.0,73,0.00,,CLR,0.00,VWS V12.07,2013-02-01 11:11:00,
2013-02-01 05:12:00,-6.5,-12.9,30.16,SW,228,0.0,2.0,73,0.00,,CLR,0.00,VWS V12.07,2013-02-01 11:12:00,
2013-02-01 05:14:00,-6.8,-13.2,30.16,SW,228,0.0,2.0,73,0.00,,CLR,0.00,VWS V12.07,2013-02-01 11:14:00,
2013-02-01 05:15:00,-6.8,-13.2,30.16,SW,228,1.0,2.0,73,0.00,,CLR,0.00,VWS V12.07,2013-02-01 11:15:00,
2013-02-01 05:16:00,-6.8,-13.2,30.16,NW,308,0.0,2.0,73,0.00,,CLR,0.00,VWS V12.07,2013-02-01 11:16:00,
2013-02-01 05:17:00,-6.8,-13.2,30.16,NW,308,0.0,2.0,73,0.00,,CLR,0.00,VWS V12.07,2013-02-01 11:17:00,
2013-02-01 05:19:00,-7.0,-13.4,30.16,SW,226,0.0,1.0,73,0.00,,CLR,0.00,VWS V12.07,2013-02-01 11:19:00,
2013-02-01 05:20:00,-7.0,-13.4,30.16,SW,226,0.0,1.0,73,0.00,,CLR,0.00,VWS V12.07,2013-02-01 11:20:00,
2013-02-01 05:21:00,-7.2,-13.6,30.16,SW,226,0.0,1.0,73,0.00,,CLR,0.00,VWS V12.07,2013-02-01 11:21:00,
2013-02-01 05:22:00,-7.2,-13.6,30.16,SW,230,0.0,1.0,73,0.00,,CLR,0.00,VWS V12.07,2013-02-01 11:22:00,
2013-02-01 05:24:00,-7.5,-13.8,30.16,SW,230,0.0,1.0,73,0.00,,CLR,0.00,VWS V12.07,2013-02-01 11:24:00,
2013-02-01 05:25:00,-7.5,-13.8,30.16,SW,230,0.0,1.0,73,0.00,,CLR,0.00,VWS V12.07,2013-02-01 11:25:00,
2013-02-01 05:26:00,-7.5,-13.8,30.16,SW,230,0.0,1.0,73,0.00,,CLR,0.00,VWS V12.07,2013-02-01 11:26:00,
2013-02-01 05:27:00,-7.7,-14.0,30.16,SW,230,0.0,1.0,73,0.00,,CLR,0.00,VWS V12.07,2013-02-01 11:27:00,
2013-02-01 05:29:00,-7.9,-14.2,30.16,SW,230,1.0,1.0,73,0.00,,CLR,0.00,VWS V12.07,2013-02-01 11:29:00,
2013-02-01 05:30:00,-7.9,-14.2,30.17,WSW,238,0.0,1.0,73,0.00,,CLR,0.00,VWS V12.07,2013-02-01 11:30:00,
2013-02-01 05:31:00,-7.9,-14.2,30.17,SSW,210,0.0,1.0,73,0.00,,CLR,0.00,VWS V12.07,2013-02-01 11:31:00,
2013-02-01 05:32:00,-8.2,-14.5,30.17,WSW,237,0.0,1.0,73,0.00,,CLR,0.00,VWS V12.07,2013-02-01 11:32:00,
2013-02-01 05:35:00,-8.2,-14.5,30.17,WSW,243,0.0,1.0,73,0.00,,OVC018,0.00,VWS V12.07,2013-02-01 11:35:00,
2013-02-01 05:36:00,-8.4,-14.7,30.17,WSW,243,0.0,1.0,73,0.00,,OVC018,0.00,VWS V12.07,2013-02-01 11:36:00,
2013-02-01 05:37:00,-8.4,-14.7,30.17,WSW,243,0.0,1.0,73,0.00,,OVC018,0.00,VWS V12.07,2013-02-01 11:37:00,
2013-02-01 05:40:00,-8.6,-14.9,30.17,SSW,207,1.0,1.0,73,0.00,,OVC018,0.00,VWS V12.07,2013-02-01 11:40:00,
2013-02-01 05:41:00,-8.6,-14.9,30.17,WSW,249,0.0,2.0,73,0.00,,OVC018,0.00,VWS V12.07,2013-02-01 11:41:00,
2013-02-01 05:42:00,-8.6,-14.9,30.17,WSW,249,0.0,2.0,73,0.00,,OVC018,0.00,VWS V12.07,2013-02-01 11:42:00,
2013-02-01 05:45:00,-8.6,-14.9,30.17,WSW,249,0.0,2.0,73,0.00,,OVC018,0.00,VWS V12.07,2013-02-01 11:45:00,
2013-02-01 05:46:00,-8.9,-15.2,30.18,West,268,0.0,2.0,73,0.00,,OVC018,0.00,VWS V12.07,2013-02-01 11:46:00,
2013-02-01 05:47:00,-8.9,-15.2,30.18,West,267,0.0,2.0,73,0.00,,OVC018,0.00,VWS V12.07,2013-02-01 11:47:00,
2013-02-01 05:48:00,-8.9,-15.2,30.18,South,191,0.0,2.0,73,0.00,,OVC018,0.00,VWS V12.07,2013-02-01 11:48:00,
2013-02-01 05:50:00,-9.1,-15.4,30.18,South,191,1.0,1.0,73,0.00,,OVC018,0.00,VWS V12.07,2013-02-01 11:50:00,
2013-02-01 05:51:00,-9.1,-15.4,30.18,South,191,0.0,1.0,73,0.00,,OVC018,0.00,VWS V12.07,2013-02-01 11:51:00,
2013-02-01 05:52:00,-9.1,-15.4,30.18,South,191,0.0,1.0,73,0.00,,OVC018,0.00,VWS V12.07,2013-02-01 11:52:00,
2013-02-01 05:53:00,-9.1,-15.4,30.18,SSW,198,1.0,1.0,73,0.00,,OVC018,0.00,VWS V12.07,2013-02-01 11:53:00,
2013-02-01 05:55:00,-9.1,-15.4,30.18,SSW,203,0.0,1.0,73,0.00,,OVC018,0.00,VWS V12.07,2013-02-01 11:55:00,
2013-02-01 05:56:00,-9.3,-15.6,30.18,SSW,203,0.0,1.0,73,0.00,,OVC018,0.00,VWS V12.07,2013-02-01 11:56:00,
2013-02-01 05:57:00,-9.3,-15.6,30.18,SW,233,1.0,2.0,73,0.00,,OVC018,0.00,VWS V12.07,2013-02-01 11:57:00,
2013-02-01 05:58:00,-9.3,-15.6,30.18,SW,233,0.0,2.0,73,0.00,,OVC018,0.00,VWS V12.07,2013-02-01 11:58:00,
2013-02-01 06:00:00,-9.3,-15.6,30.18,SW,233,0.0,2.0,73,0.00,,OVC018,0.00,VWS V12.07,2013-02-01 12:00:00,
2013-02-01 06:01:00,-9.3,-15.6,30.18,SW,233,0.0,2.0,73,0.00,,OVC018,0.00,VWS V12.07,2013-02-01 12:01:00,
2013-02-01 06:02:00,-9.6,-15.9,30.18,SW,233,0.0,2.0,73,0.00,,OVC018,0.00,VWS V12.07,2013-02-01 12:02:00,
2013-02-01 06:03:00,-9.6,-15.9,30.18,SW,233,0.0,2.0,73,0.00,,OVC018,0.00,VWS V12.07,2013-02-01 12:03:00,
2013-02-01 06:05:00,-9.6,-15.9,30.18,SW,233,0.0,2.0,73,0.00,,OVC018,0.00,VWS V12.07,2013-02-01 12:05:00,
2013-02-01 06:06:00,-9.6,-15.9,30.18,South,187,0.0,2.0,73,0.00,,OVC018,0.00,VWS V12.07,2013-02-01 12:06:00,
2013-02-01 06:07:00,-9.8,-16.1,30.18,South,187,0.0,2.0,73,0.00,,OVC018,0.00,VWS V12.07,2013-02-01 12:07:00,
2013-02-01 06:08:00,-9.8,-16.1,30.18,South,187,0.0,0.0,73,0.00,,OVC018,0.00,VWS V12.07,2013-02-01 12:08:00,
2013-02-01 06:10:00,-9.8,-16.1,30.18,South,187,0.0,1.0,73,0.00,,OVC018,0.00,VWS V12.07,2013-02-01 12:10:00,
2013-02-01 06:12:00,-10.0,-16.3,30.18,SSW,196,0.0,1.0,73,0.00,,OVC018,0.00,VWS V12.07,2013-02-01 12:12:00,
2013-02-01 06:14:00,-10.0,-16.3,30.18,SW,217,0.0,1.0,73,0.00,,OVC018,0.00,VWS V12.07,2013-02-01 12:14:00,
2013-02-01 06:15:00,-10.0,-16.3,30.19,SW,217,0.0,1.0,73,0.00,,OVC018,0.00,VWS V12.07,2013-02-01 12:15:00,
2013-02-01 06:17:00,-10.3,-16.5,30.19,SW,217,0.0,1.0,73,0.00,,OVC018,0.00,VWS V12.07,2013-02-01 12:17:00,
2013-02-01 06:19:00,-10.3,-16.8,30.19,SW,217,0.0,0.0,72,0.00,,OVC018,0.00,VWS V12.07,2013-02-01 12:19:00,
2013-02-01 06:20:00,-10.3,-16.8,30.19,SW,217,0.0,0.0,72,0.00,,OVC018,0.00,VWS V12.07,2013-02-01 12:20:00,
2013-02-01 06:22:00,-10.3,-16.8,30.19,SW,217,0.0,0.0,72,0.00,,OVC018,0.00,VWS V12.07,2013-02-01 12:22:00,
2013-02-01 06:24:00,-10.5,-17.0,30.19,SW,217,0.0,0.0,72,0.00,,OVC018,0.00,VWS V12.07,2013-02-01 12:24:00,
2013-02-01 06:25:00,-10.5,-17.0,30.19,SW,217,0.0,0.0,72,0.00,,OVC018,0.00,VWS V12.07,2013-02-01 12:25:00,
2013-02-01 06:27:00,-10.5,-17.0,30.19,SW,217,0.0,1.0,72,0.00,,OVC018,0.00,VWS V12.07,2013-02-01 12:27:00,
2013-02-01 06:28:00,-10.5,-17.0,30.19,SW,217,0.0,1.0,72,0.00,,OVC018,0.00,VWS V12.07,2013-02-01 12:28:00,
2013-02-01 06:29:00,-10.7,-17.2,30.19,SW,217,0.0,1.0,72,0.00,,OVC018,0.00,VWS V12.07,2013-02-01 12:29:00,
2013-02-01 06:30:00,-10.7,-17.2,30.19,SW,217,0.0,1.0,72,0.00,,OVC018,0.00,VWS V12.07,2013-02-01 12:30:00,
2013-02-01 06:33:00,-10.7,-17.2,30.19,SW,217,0.0,1.0,72,0.00,,OVC018,0.00,VWS V12.07,2013-02-01 12:33:00,
2013-02-01 06:34:00,-10.7,-17.2,30.19,WSW,242,0.0,1.0,72,0.00,,BKN016,0.00,VWS V12.07,2013-02-01 12:34:00,
2013-02-01 06:35:00,-10.7,-17.2,30.19,WSW,242,0.0,1.0,72,0.00,,BKN016,0.00,VWS V12.07,2013-02-01 12:35:00,
2013-02-01 06:38:00,-11.0,-17.5,30.19,WSW,242,0.0,1.0,72,0.00,,BKN016,0.00,VWS V12.07,2013-02-01 12:38:00,
2013-02-01 06:39:00,-11.0,-17.5,30.19,WSW,242,0.0,1.0,72,0.00,,BKN016,0.00,VWS V12.07,2013-02-01 12:39:00,
2013-02-01 06:40:00,-11.0,-17.5,30.19,WSW,242,0.0,1.0,72,0.00,,BKN016,0.00,VWS V12.07,2013-02-01 12:40:00,
2013-02-01 06:43:00,-11.2,-17.7,30.19,WSW,242,0.0,1.0,72,0.00,,BKN016,0.00,VWS V12.07,2013-02-01 12:43:00,
2013-02-01 06:44:00,-11.2,-17.7,30.19,WSW,242,0.0,1.0,72,0.00,,BKN016,0.00,VWS V12.07,2013-02-01 12:44:00,
2013-02-01 06:46:00,-11.2,-17.7,30.20,WSW,242,0.0,1.0,72,0.00,,BKN016,0.00,VWS V12.07,2013-02-01 12:46:00,
2013-02-01 06:48:00,-11.2,-17.7,30.20,WSW,242,0.0,1.0,72,0.00,,BKN016,0.00,VWS V12.07,2013-02-01 12:48:00,
2013-02-01 06:50:00,-11.5,-18.0,30.20,WSW,242,0.0,0.0,72,0.00,,CLR,0.00,VWS V12.07,2013-02-01 12:50:00,
2013-02-01 06:51:00,-11.5,-18.0,30.20,WSW,242,0.0,1.0,72,0.00,,CLR,0.00,VWS V12.07,2013-02-01 12:51:00,
2013-02-01 06:53:00,-11.5,-18.0,30.20,WSW,242,0.0,1.0,72,0.00,,CLR,0.00,VWS V12.07,2013-02-01 12:53:00,
2013-02-01 06:55:00,-11.7,-18.2,30.20,WSW,242,0.0,1.0,72,0.00,,CLR,0.00,VWS V12.07,2013-02-01 12:55:00,
2013-02-01 06:57:00,-11.7,-18.2,30.20,WSW,242,0.0,1.0,72,0.00,,CLR,0.00,VWS V12.07,2013-02-01 12:57:00,
2013-02-01 06:58:00,-11.7,-18.2,30.20,WSW,242,0.0,0.0,72,0.00,,CLR,0.00,VWS V12.07,2013-02-01 12:58:00,
2013-02-01 07:00:00,-11.7,-18.2,30.20,WSW,242,0.0,0.0,72,0.00,,CLR,0.00,VWS V12.07,2013-02-01 13:00:00,
2013-02-01 07:01:00,-11.7,-18.2,30.20,WSW,242,0.0,0.0,72,0.00,,CLR,0.00,VWS V12.07,2013-02-01 13:01:00,
2013-02-01 07:02:00,-12.0,-18.5,30.20,WSW,242,0.0,0.0,72,0.00,,CLR,0.00,VWS V12.07,2013-02-01 13:02:00,
2013-02-01 07:03:00,-12.0,-18.5,30.20,WSW,242,0.0,0.0,72,0.00,,CLR,0.00,VWS V12.07,2013-02-01 13:03:00,
2013-02-01 07:05:00,-12.0,-18.5,30.20,WSW,242,0.0,0.0,72,0.00,,CLR,0.00,VWS V12.07,2013-02-01 13:05:00,
2013-02-01 07:07:00,-12.0,-18.5,30.20,WSW,242,0.0,1.0,72,0.00,,CLR,0.00,VWS V12.07,2013-02-01 13:07:00,
2013-02-01 07:09:00,-12.0,-18.5,30.20,WSW,242,0.0,1.0,72,0.00,,CLR,0.00,VWS V12.07,2013-02-01 13:09:00,
2013-02-01 07:10:00,-12.2,-18.7,30.20,WSW,242,0.0,1.0,72,0.00,,CLR,0.00,VWS V12.07,2013-02-01 13:10:00,
2013-02-01 07:12:00,-12.2,-18.7,30.20,WSW,242,0.0,1.0,72,0.00,,CLR,0.00,VWS V12.07,2013-02-01 13:12:00,
2013-02-01 07:14:00,-12.2,-18.7,30.20,WSW,242,0.0,1.0,72,0.00,,CLR,0.00,VWS V12.07,2013-02-01 13:14:00,
2013-02-01 07:16:00,-12.2,-18.7,30.20,WSW,242,0.0,1.0,72,0.00,,CLR,0.00,VWS V12.07,2013-02-01 13:16:00,
2013-02-01 07:17:00,-12.2,-18.7,30.20,WSW,242,0.0,1.0,72,0.00,,CLR,0.00,VWS V12.07,2013-02-01 13:17:00,
2013-02-01 07:18:00,-12.2,-18.7,30.20,WSW,242,0.0,1.0,72,0.00,,CLR,0.00,VWS V12.07,2013-02-01 13:18:00,
2013-02-01 07:19:00,-12.2,-18.7,30.20,WSW,242,0.0,0.0,72,0.00,,CLR,0.00,VWS V12.07,2013-02-01 13:19:00,
2013-02-01 07:21:00,-12.2,-18.7,30.20,WSW,242,0.0,0.0,72,0.00,,CLR,0.00,VWS V12.07,2013-02-01 13:21:00,
2013-02-01 07:22:00,-12.5,-19.0,30.20,WSW,242,0.0,0.0,72,0.00,,CLR,0.00,VWS V12.07,2013-02-01 13:22:00,
2013-02-01 07:23:00,-12.5,-19.0,30.20,WSW,242,0.0,0.0,72,0.00,,CLR,0.00,VWS V12.07,2013-02-01 13:23:00,
2013-02-01 07:25:00,-12.5,-19.0,30.20,WSW,242,0.0,0.0,72,0.00,,CLR,0.00,VWS V12.07,2013-02-01 13:25:00,
2013-02-01 07:26:00,-12.5,-19.0,30.20,WSW,242,0.0,0.0,72,0.00,,CLR,0.00,VWS V12.07,2013-02-01 13:26:00,
2013-02-01 07:28:00,-12.8,-19.2,30.20,ESE,114,0.0,0.0,72,0.00,,CLR,0.00,VWS V12.07,2013-02-01 13:28:00,
2013-02-01 07:31:00,-12.8,-19.2,30.21,ESE,115,0.0,0.0,72,0.00,,CLR,0.00,VWS V12.07,2013-02-01 13:31:00,
2013-02-01 07:33:00,-12.8,-19.2,30.21,ESE,115,0.0,0.0,72,0.00,,CLR,0.00,VWS V12.07,2013-02-01 13:33:00,
2013-02-01 07:36:00,-12.8,-19.2,30.21,ESE,115,0.0,0.0,72,0.00,,CLR,0.00,VWS V12.07,2013-02-01 13:36:00,
2013-02-01 07:37:00,-13.0,-19.4,30.21,ESE,115,0.0,0.0,72,0.00,,CLR,0.00,VWS V12.07,2013-02-01 13:37:00,
2013-02-01 07:38:00,-13.0,-19.4,30.21,ESE,115,0.0,0.0,72,0.00,,CLR,0.00,VWS V12.07,2013-02-01 13:38:00,
2013-02-01 07:41:00,-13.0,-19.4,30.21,ESE,115,0.0,1.0,72,0.00,,CLR,0.00,VWS V12.07,2013-02-01 13:41:00,
2013-02-01 07:42:00,-13.0,-19.4,30.21,ESE,115,0.0,1.0,72,0.00,,CLR,0.00,VWS V12.07,2013-02-01 13:42:00,
2013-02-01 07:43:00,-13.0,-19.4,30.21,ESE,115,0.0,1.0,72,0.00,,CLR,0.00,VWS V12.07,2013-02-01 13:43:00,
2013-02-01 07:46:00,-13.0,-19.4,30.21,ESE,115,0.0,1.0,72,0.00,,CLR,0.00,VWS V12.07,2013-02-01 13:46:00,
2013-02-01 07:47:00,-13.0,-19.4,30.21,ESE,115,0.0,1.0,72,0.00,,CLR,0.00,VWS V12.07,2013-02-01 13:47:00,
2013-02-01 07:48:00,-13.0,-19.4,30.21,ESE,115,0.0,0.0,72,0.00,,CLR,0.00,VWS V12.07,2013-02-01 13:48:00,
2013-02-01 07:49:00,-13.0,-19.4,30.21,ESE,115,0.0,0.0,72,0.00,,CLR,0.00,VWS V12.07,2013-02-01 13:49:00,
2013-02-01 07:51:00,-13.0,-19.4,30.21,ESE,115,0.0,0.0,72,0.00,,CLR,0.00,VWS V12.07,2013-02-01 13:51:00,
2013-02-01 07:53:00,-13.0,-19.4,30.21,ESE,115,0.0,0.0,72,0.00,,CLR,0.00,VWS V12.07,2013-02-01 13:53:00,
2013-02-01 07:54:00,-12.8,-19.2,30.21,ESE,115,0.0,0.0,72,0.00,,CLR,0.00,VWS V12.07,2013-02-01 13:54:00,
2013-02-01 07:56:00,-12.8,-19.2,30.21,ESE,115,0.0,0.0,72,0.00,,CLR,0.00,VWS V12.07,2013-02-01 13:56:00,
2013-02-01 07:58:00,-12.8,-19.2,30.21,ESE,115,0.0,0.0,72,0.00,,CLR,0.00,VWS V12.07,2013-02-01 13:58:00,
2013-02-01 07:59:00,-12.8,-19.2,30.21,ESE,115,0.0,0.0,72,0.00,,CLR,0.00,VWS V12.07,2013-02-01 13:59:00,
2013-02-01 08:00:00,-12.8,-19.2,30.21,ESE,115,0.0,1.0,72,0.00,,CLR,0.00,VWS V12.07,2013-02-01 14:00:00,
2013-02-01 08:02:00,-12.8,-19.2,30.23,SW,224,0.0,2.0,72,0.00,,CLR,0.00,VWS V12.07,2013-02-01 14:02:00,
2013-02-01 08:04:00,-12.8,-19.2,30.23,SW,224,0.0,2.0,72,0.00,,CLR,0.00,VWS V12.07,2013-02-01 14:04:00,
2013-02-01 08:05:00,-12.5,-19.0,30.23,SW,224,0.0,2.0,72,0.00,,CLR,0.00,VWS V12.07,2013-02-01 14:05:00,
2013-02-01 08:07:00,-12.5,-19.0,30.23,SSW,198,0.0,2.0,72,0.00,,CLR,0.00,VWS V12.07,2013-02-01 14:07:00,
2013-02-01 08:09:00,-12.5,-19.0,30.23,WSW,251,2.0,2.0,72,0.00,,CLR,0.00,VWS V12.07,2013-02-01 14:09:00,
2013-02-01 08:10:00,-12.5,-19.0,30.23,WSW,253,0.0,2.0,72,0.00,,CLR,0.00,VWS V12.07,2013-02-01 14:10:00,
2013-02-01 08:12:00,-12.5,-19.0,30.23,SSW,205,0.0,2.0,72,0.00,,CLR,0.00,VWS V12.07,2013-02-01 14:12:00,
2013-02-01 08:14:00,-12.5,-19.0,30.23,WSW,256,0.0,2.0,72,0.00,,CLR,0.00,VWS V12.07,2013-02-01 14:14:00,
2013-02-01 08:15:00,-12.5,-19.0,30.23,WSW,256,1.0,2.0,72,0.00,,CLR,0.00,VWS V12.07,2013-02-01 14:15:00,
2013-02-01 08:16:00,-12.5,-19.0,30.23,WSW,256,0.0,2.0,72,0.00,,CLR,0.00,VWS V12.07,2013-02-01 14:16:00,
2013-02-01 08:17:00,-12.5,-19.0,30.23,WSW,256,0.0,2.0,72,0.00,,CLR,0.00,VWS V12.07,2013-02-01 14:17:00,
2013-02-01 08:19:00,-12.5,-19.0,30.23,WSW,238,1.0,1.0,72,0.00,,CLR,0.00,VWS V12.07,2013-02-01 14:19:00,
2013-02-01 08:21:00,-12.5,-19.2,30.23,SW,232,0.0,2.0,71,0.00,,CLR,0.00,VWS V12.07,2013-02-01 14:21:00,
2013-02-01 08:23:00,-12.5,-19.2,30.23,WSW,246,0.0,2.0,71,0.00,,CLR,0.00,VWS V12.07,2013-02-01 14:23:00,
2013-02-01 08:25:00,-12.5,-19.2,30.23,WSW,246,0.0,2.0,71,0.00,,CLR,0.00,VWS V12.07,2013-02-01 14:25:00,
2013-02-01 08:26:00,-12.2,-18.9,30.23,WSW,246,0.0,2.0,71,0.00,,CLR,0.00,VWS V12.07,2013-02-01 14:26:00,
2013-02-01 08:27:00,-12.2,-18.9,30.23,WSW,246,0.0,2.0,71,0.00,,CLR,0.00,VWS V12.07,2013-02-01 14:27:00,
2013-02-01 08:28:00,-12.2,-18.9,30.23,WSW,246,0.0,2.0,71,0.00,,CLR,0.00,VWS V12.07,2013-02-01 14:28:00,
2013-02-01 08:30:00,-12.2,-18.9,30.22,SW,229,0.0,2.0,71,0.00,,CLR,0.00,VWS V12.07,2013-02-01 14:30:00,
2013-02-01 08:32:00,-12.2,-18.9,30.22,SW,229,0.0,2.0,71,0.00,,CLR,0.00,VWS V12.07,2013-02-01 14:32:00,
2013-02-01 08:33:00,-12.2,-18.9,30.22,SSW,208,1.0,2.0,71,0.00,,CLR,0.00,VWS V12.07,2013-02-01 14:33:00,
2013-02-01 08:34:00,-12.2,-18.9,30.22,SW,231,0.0,2.0,71,0.00,,CLR,0.00,VWS V12.07,2013-02-01 14:34:00,
2013-02-01 08:36:00,-12.2,-18.9,30.22,SW,235,0.0,2.0,71,0.00,,CLR,0.00,VWS V12.07,2013-02-01 14:36:00,
2013-02-01 08:37:00,-12.2,-18.9,30.22,SW,235,0.0,2.0,71,0.00,,CLR,0.00,VWS V12.07,2013-02-01 14:37:00,
2013-02-01 08:39:00,-12.2,-18.9,30.22,SW,235,0.0,1.0,71,0.00,,CLR,0.00,VWS V12.07,2013-02-01 14:39:00,
2013-02-01 08:41:00,-12.2,-18.9,30.22,WSW,238,0.0,2.0,71,0.00,,CLR,0.00,VWS V12.07,2013-02-01 14:41:00,
2013-02-01 08:42:00,-12.2,-18.9,30.22,WSW,238,0.0,2.0,71,0.00,,CLR,0.00,VWS V12.07,2013-02-01 14:42:00,
2013-02-01 08:44:00,-12.0,-18.7,30.22,WSW,238,0.0,2.0,71,0.00,,CLR,0.00,VWS V12.07,2013-02-01 14:44:00,
2013-02-01 08:46:00,-12.0,-18.7,30.22,SSW,211,1.0,2.0,71,0.00,,CLR,0.00,VWS V12.07,2013-02-01 14:46:00,
2013-02-01 08:48:00,-12.0,-18.7,30.22,SSW,203,0.0,2.0,71,0.00,,CLR,0.00,VWS V12.07,2013-02-01 14:48:00,
2013-02-01 08:49:00,-12.0,-19.0,30.22,SSW,203,0.0,2.0,70,0.00,,CLR,0.00,VWS V12.07,2013-02-01 14:49:00,
2013-02-01 08:52:00,-11.7,-18.7,30.22,WSW,243,0.0,3.0,70,0.00,,CLR,0.00,VWS V12.07,2013-02-01 14:52:00,
2013-02-01 08:53:00,-11.7,-18.7,30.22,WSW,243,0.0,3.0,70,0.00,,CLR,0.00,VWS V12.07,2013-02-01 14:53:00,
2013-02-01 08:54:00,-11.7,-18.7,30.22,WSW,243,0.0,3.0,70,0.00,,CLR,0.00,VWS V12.07,2013-02-01 14:54:00,
2013-02-01 08:57:00,-11.5,-18.2,30.22,NNW,333,0.0,3.0,71,0.00,,CLR,0.00,VWS V12.07,2013-02-01 14:57:00,
2013-02-01 08:58:00,-11.5,-18.5,30.22,West,270,0.0,2.0,70,0.00,,CLR,0.00,VWS V12.07,2013-02-01 14:58:00,
2013-02-01 08:59:00,-11.2,-18.2,30.22,West,270,0.0,2.0,70,0.00,,CLR,0.00,VWS V12.07,2013-02-01 14:59:00,
2013-02-01 09:02:00,-11.2,-18.2,30.22,South,174,1.0,2.0,70,0.00,,CLR,0.00,VWS V12.07,2013-02-01 15:02:00,
2013-02-01 09:03:00,-11.0,-18.0,30.22,South,183,0.0,2.0,70,0.00,,CLR,0.00,VWS V12.07,2013-02-01 15:03:00,
2013-02-01 09:04:00,-11.0,-18.0,30.22,South,183,0.0,2.0,70,0.00,,CLR,0.00,VWS V12.07,2013-02-01 15:04:00,
2013-02-01 09:07:00,-11.0,-18.0,30.22,SSW,213,0.0,2.0,70,0.00,,CLR,0.00,VWS V12.07,2013-02-01 15:07:00,
2013-02-01 09:09:00,-10.7,-17.8,30.22,SSW,213,0.0,1.0,70,0.00,,CLR,0.00,VWS V12.07,2013-02-01 15:09:00,
2013-02-01 09:12:00,-10.7,-18.0,30.22,WSW,248,0.0,2.0,69,0.00,,CLR,0.00,VWS V12.07,2013-02-01 15:12:00,
2013-02-01 09:14:00,-10.7,-18.0,30.22,WSW,248,0.0,2.0,69,0.00,,CLR,0.00,VWS V12.07,2013-02-01 15:14:00,
2013-02-01 09:17:00,-10.5,-17.8,30.22,WSW,248,0.0,2.0,69,0.00,,CLR,0.00,VWS V12.07,2013-02-01 15:17:00,
2013-02-01 09:19:00,-10.5,-17.8,30.22,WSW,248,0.0,1.0,69,0.00,,CLR,0.00,VWS V12.07,2013-02-01 15:19:00,
2013-02-01 09:23:00,-10.0,-17.4,30.22,West,271,0.0,2.0,69,0.00,,CLR,0.00,VWS V12.07,2013-02-01 15:23:00,
2013-02-01 09:24:00,-10.0,-17.4,30.22,West,271,0.0,2.0,69,0.00,,CLR,0.00,VWS V12.07,2013-02-01 15:24:00,
2013-02-01 09:25:00,-10.0,-17.4,30.22,West,271,0.0,2.0,69,0.00,,CLR,0.00,VWS V12.07,2013-02-01 15:25:00,
2013-02-01 09:28:00,-9.6,-17.0,30.22,NE,44,0.0,0.0,69,0.00,,CLR,0.00,VWS V12.07,2013-02-01 15:28:00,
2013-02-01 09:29:00,-9.3,-16.7,30.22,WSW,245,1.0,1.0,69,0.00,,CLR,0.00,VWS V12.07,2013-02-01 15:29:00,
2013-02-01 09:30:00,-9.3,-16.7,30.22,SW,231,1.0,1.0,69,0.00,,CLR,0.00,VWS V12.07,2013-02-01 15:30:00,
2013-02-01 09:33:00,-9.3,-17.3,30.22,SSW,202,1.0,4.0,67,0.00,,CLR,0.00,VWS V12.07,2013-02-01 15:33:00,
2013-02-01 09:34:00,-9.3,-17.3,30.22,SW,224,1.0,4.0,67,0.00,,CLR,0.00,VWS V12.07,2013-02-01 15:34:00,
2013-02-01 09:35:00,-9.6,-17.5,30.22,WSW,237,0.0,4.0,67,0.00,,CLR,0.00,VWS V12.07,2013-02-01 15:35:00,
2013-02-01 09:39:00,-9.6,-17.5,30.22,WSW,244,0.0,2.0,67,0.00,,CLR,0.00,VWS V12.07,2013-02-01 15:39:00,
2013-02-01 09:40:00,-9.6,-17.5,30.22,WSW,244,0.0,2.0,67,0.00,,CLR,0.00,VWS V12.07,2013-02-01 15:40:00,
2013-02-01 09:41:00,-9.6,-17.5,30.22,WSW,244,0.0,2.0,67,0.00,,CLR,0.00,VWS V12.07,2013-02-01 15:41:00,
2013-02-01 09:44:00,-9.3,-17.3,30.22,WSW,248,0.0,5.0,67,0.00,,CLR,0.00,VWS V12.07,2013-02-01 15:44:00,
2013-02-01 09:45:00,-9.3,-17.5,30.22,West,260,1.0,5.0,66,0.00,,CLR,0.00,VWS V12.07,2013-02-01 15:45:00,
2013-02-01 09:46:00,-9.6,-17.8,30.22,SSW,212,3.0,5.0,66,0.00,,CLR,0.00,VWS V12.07,2013-02-01 15:46:00,
2013-02-01 09:49:00,-9.3,-17.5,30.22,South,188,0.0,5.0,66,0.00,,CLR,0.00,VWS V12.07,2013-02-01 15:49:00,
2013-02-01 09:50:00,-9.3,-17.5,30.22,SSW,203,2.0,5.0,66,0.00,,CLR,0.00,VWS V12.07,2013-02-01 15:50:00,
2013-02-01 09:51:00,-9.3,-17.5,30.22,South,188,0.0,5.0,66,0.00,,CLR,0.00,VWS V12.07,2013-02-01 15:51:00,
2013-02-01 09:55:00,-9.3,-17.5,30.22,SW,225,0.0,5.0,66,0.00,,CLR,0.00,VWS V12.07,2013-02-01 15:55:00,
2013-02-01 09:56:00,-9.3,-17.9,30.22,SW,235,3.0,5.0,65,0.00,,CLR,0.00,VWS V12.07,2013-02-01 15:56:00,
2013-02-01 10:00:00,-9.6,-18.1,30.21,SSW,205,1.0,5.0,65,0.00,,CLR,0.00,VWS V12.07,2013-02-01 16:00:00,
2013-02-01 10:01:00,-9.3,-17.5,30.21,SW,229,1.0,5.0,66,0.00,,CLR,0.00,VWS V12.07,2013-02-01 16:01:00,
2013-02-01 10:05:00,-9.1,-17.4,30.21,SSW,205,2.0,4.0,66,0.00,,CLR,0.00,VWS V12.07,2013-02-01 16:05:00,
2013-02-01 10:06:00,-9.1,-17.7,30.21,SSW,200,0.0,5.0,65,0.00,,CLR,0.00,VWS V12.07,2013-02-01 16:06:00,
2013-02-01 10:10:00,-9.1,-17.7,30.21,SW,231,2.0,4.0,65,0.00,,CLR,0.00,VWS V12.07,2013-02-01 16:10:00,
2013-02-01 10:11:00,-9.1,-18.0,30.21,SW,236,0.0,4.0,64,0.00,,CLR,0.00,VWS V12.07,2013-02-01 16:11:00,
2013-02-01 10:12:00,-9.1,-18.0,30.21,SW,220,0.0,4.0,64,0.00,,CLR,0.00,VWS V12.07,2013-02-01 16:12:00,
2013-02-01 10:16:00,-8.6,-17.2,30.22,SSW,200,1.0,4.0,65,0.00,,CLR,0.00,VWS V12.07,2013-02-01 16:16:00,
2013-02-01 10:17:00,-8.4,-16.7,30.22,WSW,243,0.0,4.0,66,0.00,,CLR,0.00,VWS V12.07,2013-02-01 16:17:00,
2013-02-01 10:21:00,-8.2,-16.8,30.22,South,169,0.0,4.0,65,0.00,,CLR,0.00,VWS V12.07,2013-02-01 16:21:00,
2013-02-01 10:22:00,-8.2,-16.8,30.22,WSW,240,1.0,4.0,65,0.00,,CLR,0.00,VWS V12.07,2013-02-01 16:22:00,
2013-02-01 10:26:00,-8.2,-17.4,30.22,SSW,198,1.0,5.0,63,0.00,,CLR,0.00,VWS V12.07,2013-02-01 16:26:00,
2013-02-01 10:27:00,-8.2,-17.1,30.22,SSW,198,0.0,5.0,64,0.00,,CLR,0.00,VWS V12.07,2013-02-01 16:27:00,
2013-02-01 10:31:00,-8.2,-17.4,30.21,SSW,212,0.0,4.0,63,0.00,,CLR,0.00,VWS V12.07,2013-02-01 16:31:00,
2013-02-01 10:32:00,-7.9,-17.1,30.21,SSW,212,0.0,4.0,63,0.00,,CLR,0.00,VWS V12.07,2013-02-01 16:32:00,
2013-02-01 10:36:00,-7.9,-17.1,30.21,SW,233,0.0,4.0,63,0.00,,CLR,0.00,VWS V12.07,2013-02-01 16:36:00,
2013-02-01 10:37:00,-7.7,-16.9,30.21,SW,231,1.0,4.0,63,0.00,,CLR,0.00,VWS V12.07,2013-02-01 16:37:00,
2013-02-01 10:38:00,-7.7,-16.9,30.21,SSW,200,1.0,4.0,63,0.00,,CLR,0.00,VWS V12.07,2013-02-01 16:38:00,
2013-02-01 10:41:00,-7.9,-17.4,30.21,SW,216,3.0,3.0,62,0.00,,CLR,0.00,VWS V12.07,2013-02-01 16:41:00,
2013-02-01 10:43:00,-8.2,-17.7,30.21,SW,219,1.0,3.0,62,0.00,,CLR,0.00,VWS V12.07,2013-02-01 16:43:00,
2013-02-01 10:44:00,-8.2,-17.7,30.21,SW,219,0.0,3.0,62,0.00,,CLR,0.00,VWS V12.07,2013-02-01 16:44:00,
2013-02-01 10:46:00,-7.9,-17.1,30.21,SSE,158,0.0,3.0,63,0.00,,CLR,0.00,VWS V12.07,2013-02-01 16:46:00,
2013-02-01 10:48:00,-7.9,-17.1,30.21,SSW,202,3.0,3.0,63,0.00,,CLR,0.00,VWS V12.07,2013-02-01 16:48:00,
2013-02-01 10:49:00,-7.7,-16.9,30.21,SSW,198,1.0,3.0,63,0.00,,CLR,0.00,VWS V12.07,2013-02-01 16:49:00,
2013-02-01 10:52:00,-7.7,-16.9,30.21,South,188,0.0,4.0,63,0.00,,CLR,0.00,VWS V12.07,2013-02-01 16:52:00,
2013-02-01 10:53:00,-7.5,-16.7,30.21,SE,124,1.0,4.0,63,0.00,,CLR,0.00,VWS V12.07,2013-02-01 16:53:00,
2013-02-01 10:54:00,-7.5,-16.7,30.21,South,186,2.0,4.0,63,0.00,,CLR,0.00,VWS V12.07,2013-02-01 16:54:00,
2013-02-01 10:57:00,-7.2,-16.5,30.21,SW,234,0.0,4.0,63,0.00,,CLR,0.00,VWS V12.07,2013-02-01 16:57:00,
2013-02-01 10:58:00,-7.2,-16.8,30.21,SSW,201,4.0,5.0,62,0.00,,CLR,0.00,VWS V12.07,2013-02-01 16:58:00,
2013-02-01 10:59:00,-7.2,-16.8,30.21,SW,219,3.0,5.0,62,0.00,,CLR,0.00,VWS V12.07,2013-02-01 16:59:00,
2013-02-01 11:02:00,-7.2,-16.8,30.21,SSW,196,1.0,5.0,62,0.00,,CLR,0.00,VWS V12.07,2013-02-01 17:02:00,
2013-02-01 11:03:00,-7.2,-17.1,30.21,South,175,0.0,5.0,61,0.00,,CLR,0.00,VWS V12.07,2013-02-01 17:03:00,
2013-02-01 11:04:00,-7.2,-16.8,30.21,SW,215,2.0,5.0,62,0.00,,CLR,0.00,VWS V12.07,2013-02-01 17:04:00,
2013-02-01 11:07:00,-7.0,-16.6,30.21,South,184,0.0,5.0,62,0.00,,CLR,0.00,VWS V12.07,2013-02-01 17:07:00,
2013-02-01 11:09:00,-6.8,-16.4,30.21,South,181,0.0,4.0,62,0.00,,CLR,0.00,VWS V12.07,2013-02-01 17:09:00,
2013-02-01 11:12:00,-6.5,-16.4,30.21,SSE,168,0.0,4.0,61,0.00,,CLR,0.00,VWS V12.07,2013-02-01 17:12:00,
2013-02-01 11:14:00,-6.5,-16.1,30.21,SW,235,0.0,4.0,62,0.00,,CLR,0.00,VWS V12.07,2013-02-01 17:14:00,
2013-02-01 11:15:00,-6.5,-16.1,30.20,South,190,2.0,4.0,62,0.00,,CLR,0.00,VWS V12.07,2013-02-01 17:15:00,
2013-02-01 11:17:00,-6.8,-17.0,30.20,South,174,0.0,5.0,60,0.00,,CLR,0.00,VWS V12.07,2013-02-01 17:17:00,
2013-02-01 11:19:00,-6.5,-16.4,30.20,SSW,204,0.0,5.0,61,0.00,,CLR,0.00,VWS V12.07,2013-02-01 17:19:00,
2013-02-01 11:20:00,-6.3,-16.2,30.20,SSW,210,1.0,5.0,61,0.00,,CLR,0.00,VWS V12.07,2013-02-01 17:20:00,
2013-02-01 11:22:00,-6.1,-16.0,30.20,SSW,205,3.0,5.0,61,0.00,,CLR,0.00,VWS V12.07,2013-02-01 17:22:00,
2013-02-01 11:24:00,-5.9,-15.9,30.20,SSW,192,1.0,5.0,61,0.00,,CLR,0.00,VWS V12.07,2013-02-01 17:24:00,
2013-02-01 11:25:00,-5.9,-15.9,30.20,South,177,2.0,5.0,61,0.00,,CLR,0.00,VWS V12.07,2013-02-01 17:25:00,
2013-02-01 11:28:00,-5.9,-16.2,30.20,South,179,0.0,5.0,60,0.00,,CLR,0.00,VWS V12.07,2013-02-01 17:28:00,
2013-02-01 11:29:00,-5.9,-15.9,30.20,SSW,210,3.0,4.0,61,0.00,,CLR,0.00,VWS V12.07,2013-02-01 17:29:00,
2013-02-01 11:30:00,-5.9,-16.2,30.20,South,180,0.0,4.0,60,0.00,,CLR,0.00,VWS V12.07,2013-02-01 17:30:00,
2013-02-01 11:33:00,-5.4,-15.4,30.20,SSW,201,2.0,4.0,61,0.00,,CLR,0.00,VWS V12.07,2013-02-01 17:33:00,
2013-02-01 11:34:00,-5.4,-15.7,30.20,SSW,198,3.0,4.0,60,0.00,,CLR,0.00,VWS V12.07,2013-02-01 17:34:00,
2013-02-01 11:35:00,-5.4,-15.7,30.20,SSW,211,0.0,4.0,60,0.00,,CLR,0.00,VWS V12.07,2013-02-01 17:35:00,
2013-02-01 11:36:00,-5.4,-15.7,30.20,SSW,213,2.0,4.0,60,0.00,,CLR,0.00,VWS V12.07,2013-02-01 17:36:00,
2013-02-01 11:39:00,-5.6,-16.2,30.20,SSW,204,3.0,4.0,59,0.00,,CLR,0.00,VWS V12.07,2013-02-01 17:39:00,
2013-02-01 11:40:00,-5.6,-15.9,30.20,South,179,0.0,4.0,60,0.00,,CLR,0.00,VWS V12.07,2013-02-01 17:40:00,
2013-02-01 11:41:00,-5.4,-15.7,30.20,SSW,197,1.0,4.0,60,0.00,,CLR,0.00,VWS V12.07,2013-02-01 17:41:00,
2013-02-01 11:44:00,-5.2,-15.5,30.20,South,190,2.0,4.0,60,0.00,,CLR,0.00,VWS V12.07,2013-02-01 17:44:00,
2013-02-01 11:45:00,-5.2,-15.8,30.18,South,179,1.0,4.0,59,0.00,,CLR,0.00,VWS V12.07,2013-02-01 17:45:00,
2013-02-01 11:46:00,-5.2,-15.5,30.18,SSW,211,3.0,4.0,60,0.00,,CLR,0.00,VWS V12.07,2013-02-01 17:46:00,
2013-02-01 11:49:00,-5.0,-15.3,30.18,SW,219,1.0,4.0,60,0.00,,CLR,0.00,VWS V12.07,2013-02-01 17:49:00,
2013-02-01 11:50:00,-5.0,-15.3,30.18,SSW,200,1.0,4.0,60,0.00,,CLR,0.00,VWS V12.07,2013-02-01 17:50:00,
2013-02-01 11:51:00,-4.8,-15.1,30.18,South,191,1.0,4.0,60,0.00,,CLR,0.00,VWS V12.07,2013-02-01 17:51:00,
2013-02-01 11:54:00,-4.6,-14.9,30.18,SSW,210,2.0,4.0,60,0.00,,CLR,0.00,VWS V12.07,2013-02-01 17:54:00,
2013-02-01 11:55:00,-4.8,-15.5,30.18,SSE,166,1.0,4.0,59,0.00,,CLR,0.00,VWS V12.07,2013-02-01 17:55:00,
2013-02-01 11:56:00,-4.8,-15.5,30.18,SSE,153,0.0,4.0,59,0.00,,CLR,0.00,VWS V12.07,2013-02-01 17:56:00,
2013-02-01 11:59:00,-4.8,-15.5,30.18,SSW,207,2.0,7.0,59,0.00,,CLR,0.00,VWS V12.07,2013-02-01 17:59:00,
2013-02-01 12:01:00,-4.6,-14.9,30.18,WSW,245,1.0,7.0,60,0.00,,CLR,0.00,VWS V12.07,2013-02-01 18:01:00,
2013-02-01 12:02:00,-4.6,-15.3,30.18,WSW,240,0.0,7.0,59,0.00,,CLR,0.00,VWS V12.07,2013-02-01 18:02:00,
2013-02-01 12:04:00,-4.3,-14.6,30.18,WNW,283,0.0,7.0,60,0.00,,CLR,0.00,VWS V12.07,2013-02-01 18:04:00,
2013-02-01 12:06:00,-4.3,-15.0,30.18,SSW,205,0.0,7.0,59,0.00,,CLR,0.00,VWS V12.07,2013-02-01 18:06:00,
2013-02-01 12:07:00,-4.3,-14.6,30.18,SW,221,2.0,10.0,60,0.00,,CLR,0.00,VWS V12.07,2013-02-01 18:07:00,
2013-02-01 12:09:00,-4.1,-14.8,30.18,SW,230,1.0,10.0,59,0.00,,CLR,0.00,VWS V12.07,2013-02-01 18:09:00,
2013-02-01 12:11:00,-4.1,-14.8,30.18,SW,214,2.0,10.0,59,0.00,,CLR,0.00,VWS V12.07,2013-02-01 18:11:00,
2013-02-01 12:12:00,-4.1,-14.8,30.18,SSE,162,3.0,10.0,59,0.00,,CLR,0.00,VWS V12.07,2013-02-01 18:12:00,
2013-02-01 12:15:00,-3.9,-14.6,30.18,SSE,166,0.0,10.0,59,0.00,,CLR,0.00,VWS V12.07,2013-02-01 18:15:00,
2013-02-01 12:16:00,-3.7,-14.1,30.18,SW,216,3.0,10.0,60,0.00,,CLR,0.00,VWS V12.07,2013-02-01 18:16:00,
2013-02-01 12:17:00,-3.7,-14.1,30.18,WSW,253,3.0,10.0,60,0.00,,CLR,0.00,VWS V12.07,2013-02-01 18:17:00,
2013-02-01 12:18:00,-3.5,-13.9,30.18,SW,219,1.0,10.0,60,0.00,,CLR,0.00,VWS V12.07,2013-02-01 18:18:00,
2013-02-01 12:20:00,-3.7,-14.8,30.18,SSW,207,0.0,4.0,58,0.00,,CLR,0.00,VWS V12.07,2013-02-01 18:20:00,
2013-02-01 12:21:00,-3.7,-14.8,30.18,SSW,205,1.0,4.0,58,0.00,,CLR,0.00,VWS V12.07,2013-02-01 18:21:00,
2013-02-01 12:23:00,-3.7,-14.4,30.18,South,174,2.0,4.0,59,0.00,,CLR,0.00,VWS V12.07,2013-02-01 18:23:00,
2013-02-01 12:25:00,-3.5,-14.2,30.18,SW,231,2.0,4.0,59,0.00,,CLR,0.00,VWS V12.07,2013-02-01 18:25:00,
2013-02-01 12:27:00,-3.5,-14.2,30.18,South,188,2.0,4.0,59,0.00,,CLR,0.00,VWS V12.07,2013-02-01 18:27:00,
2013-02-01 12:28:00,-3.3,-14.0,30.18,SSW,202,0.0,4.0,59,0.00,,CLR,0.00,VWS V12.07,2013-02-01 18:28:00,
2013-02-01 12:31:00,-2.8,-13.6,30.17,SSW,207,2.0,5.0,59,0.00,,CLR,0.00,VWS V12.07,2013-02-01 18:31:00,
2013-02-01 12:32:00,-2.8,-13.9,30.17,South,190,1.0,5.0,58,0.00,,CLR,0.00,VWS V12.07,2013-02-01 18:32:00,
2013-02-01 12:33:00,-3.1,-14.2,30.17,SW,232,3.0,5.0,58,0.00,,CLR,0.00,VWS V12.07,2013-02-01 18:33:00,
2013-02-01 12:34:00,-3.3,-14.7,30.17,SSW,208,0.0,5.0,57,0.00,,CLR,0.00,VWS V12.07,2013-02-01 18:34:00,
2013-02-01 12:36:00,-3.1,-14.2,30.17,SSW,209,0.0,5.0,58,0.00,,CLR,0.00,VWS V12.07,2013-02-01 18:36:00,
2013-02-01 12:37:00,-3.1,-14.2,30.17,SSW,213,0.0,5.0,58,0.00,,CLR,0.00,VWS V12.07,2013-02-01 18:37:00,
2013-02-01 12:38:00,-3.1,-14.2,30.17,SSW,198,0.0,4.0,58,0.00,,CLR,0.00,VWS V12.07,2013-02-01 18:38:00,
2013-02-01 12:39:00,-2.8,-13.9,30.17,SSW,200,2.0,4.0,58,0.00,,CLR,0.00,VWS V12.07,2013-02-01 18:39:00,
2013-02-01 12:42:00,-2.8,-13.9,30.17,SSW,213,2.0,5.0,58,0.00,,CLR,0.00,VWS V12.07,2013-02-01 18:42:00,
2013-02-01 12:43:00,-3.1,-14.5,30.17,SW,233,1.0,5.0,57,0.00,,CLR,0.00,VWS V12.07,2013-02-01 18:43:00,
2013-02-01 12:44:00,-3.1,-14.5,30.17,SSW,212,4.0,5.0,57,0.00,,CLR,0.00,VWS V12.07,2013-02-01 18:44:00,
2013-02-01 12:47:00,-3.1,-14.2,30.16,SW,215,0.0,5.0,58,0.00,,CLR,0.00,VWS V12.07,2013-02-01 18:47:00,
2013-02-01 12:48:00,-2.8,-13.6,30.16,SW,228,0.0,3.0,59,0.00,,CLR,0.00,VWS V12.07,2013-02-01 18:48:00,
2013-02-01 12:49:00,-2.8,-13.6,30.16,South,174,1.0,3.0,59,0.00,,CLR,0.00,VWS V12.07,2013-02-01 18:49:00,
2013-02-01 12:50:00,-2.6,-13.0,30.16,South,186,1.0,3.0,60,0.00,,CLR,0.00,VWS V12.07,2013-02-01 18:50:00,
2013-02-01 12:52:00,-2.4,-12.9,30.16,SSW,208,2.0,3.0,60,0.00,,CLR,0.00,VWS V12.07,2013-02-01 18:52:00,
2013-02-01 12:53:00,-2.2,-13.0,30.16,SSW,208,2.0,3.0,59,0.00,,CLR,0.00,VWS V12.07,2013-02-01 18:53:00,
2013-02-01 12:55:00,-2.4,-13.2,30.16,SW,218,0.0,3.0,59,0.00,,CLR,0.00,VWS V12.07,2013-02-01 18:55:00,
2013-02-01 12:58:00,-2.4,-13.2,30.16,SSW,204,0.0,4.0,59,0.00,,CLR,0.00,VWS V12.07,2013-02-01 18:58:00,
2013-02-01 13:00:00,-2.2,-13.0,30.16,SSW,194,0.0,4.0,59,0.00,,CLR,0.00,VWS V12.07,2013-02-01 19:00:00,
2013-02-01 13:03:00,-2.0,-12.8,30.16,SW,220,2.0,4.0,59,0.00,,CLR,0.00,VWS V12.07,2013-02-01 19:03:00,
2013-02-01 13:05:00,-2.0,-12.8,30.16,SW,222,3.0,5.0,59,0.00,,CLR,0.00,VWS V12.07,2013-02-01 19:05:00,
2013-02-01 13:08:00,-2.0,-12.8,30.16,SW,227,2.0,5.0,59,0.00,,CLR,0.00,VWS V12.07,2013-02-01 19:08:00,
2013-02-01 13:09:00,-2.0,-12.8,30.16,SSW,212,0.0,3.0,59,0.00,,CLR,0.00,VWS V12.07,2013-02-01 19:09:00,
2013-02-01 13:11:00,-1.8,-12.6,30.16,South,179,1.0,3.0,59,0.00,,CLR,0.00,VWS V12.07,2013-02-01 19:11:00,
2013-02-01 13:13:00,-1.8,-13.0,30.16,SSW,211,2.0,4.0,58,0.00,,CLR,0.00,VWS V12.07,2013-02-01 19:13:00,
2013-02-01 13:14:00,-1.8,-13.0,30.16,SSW,210,0.0,4.0,58,0.00,,CLR,0.00,VWS V12.07,2013-02-01 19:14:00,
2013-02-01 13:16:00,-1.8,-13.0,30.16,South,169,1.0,4.0,58,0.00,,CLR,0.00,VWS V12.07,2013-02-01 19:16:00,
2013-02-01 13:18:00,-1.6,-12.8,30.16,SSW,196,1.0,3.0,58,0.00,,CLR,0.00,VWS V12.07,2013-02-01 19:18:00,
2013-02-01 13:19:00,-1.8,-13.0,30.16,SSW,195,2.0,3.0,58,0.00,,CLR,0.00,VWS V12.07,2013-02-01 19:19:00,
2013-02-01 13:21:00,-1.8,-13.0,30.16,SW,217,1.0,3.0,58,0.00,,CLR,0.00,VWS V12.07,2013-02-01 19:21:00,
2013-02-01 13:24:00,-1.8,-13.0,30.16,SSW,208,3.0,5.0,58,0.00,,CLR,0.00,VWS V12.07,2013-02-01 19:24:00,
2013-02-01 13:26:00,-1.8,-13.0,30.16,South,181,2.0,5.0,58,0.00,,CLR,0.00,VWS V12.07,2013-02-01 19:26:00,
2013-02-01 13:27:00,-1.8,-13.0,30.16,SSW,193,2.0,5.0,58,0.00,,CLR,0.00,VWS V12.07,2013-02-01 19:27:00,
2013-02-01 13:29:00,-1.8,-13.3,30.16,SSE,162,1.0,3.0,57,0.00,,CLR,0.00,VWS V12.07,2013-02-01 19:29:00,
2013-02-01 13:31:00,-1.8,-13.0,30.15,SSW,200,2.0,3.0,58,0.00,,CLR,0.00,VWS V12.07,2013-02-01 19:31:00,
2013-02-01 13:32:00,-1.8,-13.0,30.15,SSW,200,1.0,3.0,58,0.00,,CLR,0.00,VWS V12.07,2013-02-01 19:32:00,
2013-02-01 13:34:00,-1.6,-12.4,30.15,SSW,208,2.0,3.0,59,0.00,,CLR,0.00,VWS V12.07,2013-02-01 19:34:00,
2013-02-01 13:35:00,-1.4,-12.2,30.15,SSW,201,0.0,3.0,59,0.00,,CLR,0.00,VWS V12.07,2013-02-01 19:35:00,
2013-02-01 13:36:00,-1.2,-12.1,30.15,SSW,201,2.0,3.0,59,0.00,,CLR,0.00,VWS V12.07,2013-02-01 19:36:00,
2013-02-01 13:37:00,-1.0,-11.5,30.15,SSW,203,2.0,3.0,60,0.00,,CLR,0.00,VWS V12.07,2013-02-01 19:37:00,
2013-02-01 13:40:00,-1.0,-12.2,30.15,SSW,202,1.0,3.0,58,0.00,,CLR,0.00,VWS V12.07,2013-02-01 19:40:00,
2013-02-01 13:41:00,-0.8,-12.0,30.15,SSW,200,2.0,3.0,58,0.00,,CLR,0.00,VWS V12.07,2013-02-01 19:41:00,
2013-02-01 13:42:00,-0.8,-12.0,30.15,SSW,207,3.0,4.0,58,0.00,,CLR,0.00,VWS V12.07,2013-02-01 19:42:00,
2013-02-01 13:45:00,-0.8,-12.4,30.14,SSW,210,1.0,4.0,57,0.00,,CLR,0.00,VWS V12.07,2013-02-01 19:45:00,
2013-02-01 13:46:00,-0.8,-12.4,30.14,SSW,210,1.0,4.0,57,0.00,,CLR,0.00,VWS V12.07,2013-02-01 19:46:00,
2013-02-01 13:48:00,-1.0,-12.6,30.14,SW,214,2.0,4.0,57,0.00,,CLR,0.00,VWS V12.07,2013-02-01 19:48:00,
2013-02-01 13:50:00,-1.0,-12.6,30.14,SSW,199,2.0,4.0,57,0.00,,CLR,0.00,VWS V12.07,2013-02-01 19:50:00,
2013-02-01 13:51:00,-1.0,-12.6,30.14,SSW,192,3.0,4.0,57,0.00,,CLR,0.00,VWS V12.07,2013-02-01 19:51:00,
2013-02-01 13:52:00,-1.0,-12.6,30.14,SSW,198,1.0,4.0,57,0.00,,CLR,0.00,VWS V12.07,2013-02-01 19:52:00,
2013-02-01 13:53:00,-1.0,-12.6,30.14,SSW,209,1.0,4.0,57,0.00,,CLR,0.00,VWS V12.07,2013-02-01 19:53:00,
2013-02-01 13:56:00,-1.0,-12.6,30.14,WSW,238,0.0,4.0,57,0.00,,CLR,0.00,VWS V12.07,2013-02-01 19:56:00,
2013-02-01 13:57:00,-1.0,-12.6,30.14,SSW,207,2.0,4.0,57,0.00,,CLR,0.00,VWS V12.07,2013-02-01 19:57:00,
2013-02-01 13:58:00,-1.0,-12.6,30.14,SW,235,1.0,5.0,57,0.00,,CLR,0.00,VWS V12.07,2013-02-01 19:58:00,
2013-02-01 14:02:00,-0.6,-12.2,30.14,SSW,209,1.0,5.0,57,0.00,,CLR,0.00,VWS V12.07,2013-02-01 20:02:00,
2013-02-01 14:03:00,-0.6,-11.8,30.14,SE,143,0.0,5.0,58,0.00,,CLR,0.00,VWS V12.07,2013-02-01 20:03:00,
2013-02-01 14:07:00,-0.4,-12.0,30.14,SW,219,0.0,5.0,57,0.00,,CLR,0.00,VWS V12.07,2013-02-01 20:07:00,
2013-02-01 14:08:00,-0.4,-11.6,30.14,SW,219,0.0,5.0,58,0.00,,CLR,0.00,VWS V12.07,2013-02-01 20:08:00,
2013-02-01 14:09:00,-0.6,-12.2,30.14,SW,218,1.0,3.0,57,0.00,,CLR,0.00,VWS V12.07,2013-02-01 20:09:00,
2013-02-01 14:13:00,-0.6,-12.2,30.14,SW,222,0.0,3.0,57,0.00,,CLR,0.00,VWS V12.07,2013-02-01 20:13:00,
2013-02-01 14:14:00,-0.6,-12.2,30.14,South,182,1.0,3.0,57,0.00,,CLR,0.00,VWS V12.07,2013-02-01 20:14:00,
2013-02-01 14:18:00,-0.8,-12.7,30.13,SSW,199,0.0,4.0,56,0.00,,CLR,0.00,VWS V12.07,2013-02-01 20:18:00,
2013-02-01 14:19:00,-0.8,-12.4,30.13,SSW,199,0.0,4.0,57,0.00,,CLR,0.00,VWS V12.07,2013-02-01 20:19:00,
2013-02-01 14:23:00,-0.4,-12.0,30.13,SSW,200,2.0,4.0,57,0.00,,CLR,0.00,VWS V12.07,2013-02-01 20:23:00,
2013-02-01 14:24:00,-0.2,-11.8,30.13,SSW,205,1.0,4.0,57,0.00,,CLR,0.00,VWS V12.07,2013-02-01 20:24:00,
2013-02-01 14:28:00,-0.2,-12.1,30.13,SW,225,2.0,4.0,56,0.00,,CLR,0.00,VWS V12.07,2013-02-01 20:28:00,
2013-02-01 14:29:00,-0.2,-12.1,30.13,SW,226,1.0,4.0,56,0.00,,CLR,0.00,VWS V12.07,2013-02-01 20:29:00,
2013-02-01 14:30:00,-0.2,-11.8,30.13,SSW,196,2.0,4.0,57,0.00,,CLR,0.00,VWS V12.07,2013-02-01 20:30:00,
2013-02-01 14:33:00,-0.2,-11.6,30.13,SSW,194,2.0,4.0,57,0.00,,CLR,0.00,VWS V12.07,2013-02-01 20:33:00,
2013-02-01 14:34:00,-0.2,-11.6,30.13,SSW,194,1.0,4.0,57,0.00,,CLR,0.00,VWS V12.07,2013-02-01 20:34:00,
2013-02-01 14:36:00,0.1,-11.5,30.13,SSW,200,0.0,4.0,57,0.00,,CLR,0.00,VWS V12.07,2013-02-01 20:36:00,
2013-02-01 14:38:00,0.3,-11.3,30.13,SSW,200,1.0,2.0,57,0.00,,CLR,0.00,VWS V12.07,2013-02-01 20:38:00,
2013-02-01 14:39:00,0.3,-11.3,30.13,SW,217,2.0,3.0,57,0.00,,CLR,0.00,VWS V12.07,2013-02-01 20:39:00,
2013-02-01 14:40:00,0.3,-11.3,30.13,SSW,195,1.0,4.0,57,0.00,,CLR,0.00,VWS V12.07,2013-02-01 20:40:00,
2013-02-01 14:41:00,0.3,-11.7,30.13,SW,216,1.0,4.0,56,0.00,,CLR,0.00,VWS V12.07,2013-02-01 20:41:00,
2013-02-01 14:44:00,0.3,-11.7,30.13,SSW,208,2.0,4.0,56,0.00,,CLR,0.00,VWS V12.07,2013-02-01 20:44:00,
2013-02-01 14:45:00,0.3,-11.7,30.12,SW,214,1.0,4.0,56,0.00,,CLR,0.00,VWS V12.07,2013-02-01 20:45:00,
2013-02-01 14:46:00,0.3,-11.7,30.12,SSW,207,0.0,4.0,56,0.00,,CLR,0.00,VWS V12.07,2013-02-01 20:46:00,
2013-02-01 14:49:00,0.3,-11.3,30.12,SSW,212,2.0,3.0,57,0.00,,CLR,0.00,VWS V12.07,2013-02-01 20:49:00,
2013-02-01 14:50:00,0.3,-11.7,30.12,South,188,2.0,4.0,56,0.00,,CLR,0.00,VWS V12.07,2013-02-01 20:50:00,
2013-02-01 14:51:00,0.3,-11.7,30.12,South,191,2.0,4.0,56,0.00,,CLR,0.00,VWS V12.07,2013-02-01 20:51:00,
2013-02-01 14:54:00,0.3,-11.3,30.12,SSW,203,1.0,4.0,57,0.00,,CLR,0.00,VWS V12.07,2013-02-01 20:54:00,
2013-02-01 14:55:00,0.3,-11.3,30.12,SSW,212,1.0,4.0,57,0.00,,CLR,0.00,VWS V12.07,2013-02-01 20:55:00,
2013-02-01 14:56:00,0.3,-11.3,30.12,SW,214,1.0,4.0,57,0.00,,CLR,0.00,VWS V12.07,2013-02-01 20:56:00,
2013-02-01 14:59:00,0.3,-11.0,30.12,South,191,0.0,3.0,58,0.00,,CLR,0.00,VWS V12.07,2013-02-01 20:59:00,
2013-02-01 15:00:00,0.3,-11.3,30.13,SSW,207,0.0,3.0,57,0.00,,CLR,0.00,VWS V12.07,2013-02-01 21:00:00,
2013-02-01 15:02:00,0.1,-11.2,30.13,SSW,192,1.0,4.0,58,0.00,,CLR,0.00,VWS V12.07,2013-02-01 21:02:00,
2013-02-01 15:04:00,0.1,-11.2,30.13,SSW,200,1.0,4.0,58,0.00,,CLR,0.00,VWS V12.07,2013-02-01 21:04:00,
2013-02-01 15:05:00,0.1,-11.2,30.13,SW,220,2.0,4.0,58,0.00,,CLR,0.00,VWS V12.07,2013-02-01 21:05:00,
2013-02-01 15:07:00,0.1,-11.6,30.13,WSW,243,0.0,4.0,57,0.00,,CLR,0.00,VWS V12.07,2013-02-01 21:07:00,
2013-02-01 15:09:00,0.1,-11.3,30.13,SSW,212,2.0,3.0,58,0.00,,CLR,0.00,VWS V12.07,2013-02-01 21:09:00,
2013-02-01 15:11:00,0.1,-10.9,30.13,SSW,193,0.0,3.0,59,0.00,,CLR,0.00,VWS V12.07,2013-02-01 21:11:00,
2013-02-01 15:12:00,0.1,-11.3,30.13,SSW,199,2.0,3.0,58,0.00,,CLR,0.00,VWS V12.07,2013-02-01 21:12:00,
2013-02-01 15:15:00,-0.2,-11.8,30.14,SW,214,3.0,3.0,57,0.00,,CLR,0.00,VWS V12.07,2013-02-01 21:15:00,
2013-02-01 15:16:00,-0.2,-11.8,30.14,SSW,200,2.0,3.0,57,0.00,,CLR,0.00,VWS V12.07,2013-02-01 21:16:00,
2013-02-01 15:18:00,-0.2,-11.8,30.14,SSW,212,1.0,3.0,57,0.00,,CLR,0.00,VWS V12.07,2013-02-01 21:18:00,
2013-02-01 15:20:00,-0.4,-12.0,30.14,SW,220,2.0,3.0,57,0.00,,CLR,0.00,VWS V12.07,2013-02-01 21:20:00,
2013-02-01 15:21:00,-0.4,-12.0,30.14,SW,220,1.0,3.0,57,0.00,,CLR,0.00,VWS V12.07,2013-02-01 21:21:00,
2013-02-01 15:22:00,-0.4,-11.6,30.14,SW,224,1.0,3.0,58,0.00,,CLR,0.00,VWS V12.07,2013-02-01 21:22:00,
2013-02-01 15:23:00,-0.4,-11.6,30.14,SW,236,0.0,3.0,58,0.00,,CLR,0.00,VWS V12.07,2013-02-01 21:23:00,
2013-02-01 15:25:00,-0.4,-11.6,30.14,WSW,242,1.0,3.0,58,0.00,,CLR,0.00,VWS V12.07,2013-02-01 21:25:00,
2013-02-01 15:26:00,-0.4,-11.6,30.14,SW,217,1.0,3.0,58,0.00,,CLR,0.00,VWS V12.07,2013-02-01 21:26:00,
2013-02-01 15:27:00,-0.4,-11.6,30.14,SSW,209,0.0,3.0,58,0.00,,CLR,0.00,VWS V12.07,2013-02-01 21:27:00,
2013-02-01 15:28:00,-0.4,-11.6,30.14,SW,222,2.0,3.0,58,0.00,,CLR,0.00,VWS V12.07,2013-02-01 21:28:00,
2013-02-01 15:30:00,-0.4,-12.0,30.13,SSW,202,0.0,3.0,57,0.00,,CLR,0.00,VWS V12.07,2013-02-01 21:30:00,
2013-02-01 15:31:00,-0.4,-12.0,30.13,SSW,202,2.0,3.0,57,0.00,,CLR,0.00,VWS V12.07,2013-02-01 21:31:00,
2013-02-01 15:33:00,-0.4,-12.0,30.13,SSW,198,3.0,3.0,57,0.00,,CLR,0.00,VWS V12.07,2013-02-01 21:33:00,
2013-02-01 15:36:00,-0.4,-12.0,30.13,SW,219,1.0,3.0,57,0.00,,CLR,0.00,VWS V12.07,2013-02-01 21:36:00,
2013-02-01 15:38:00,-0.4,-12.0,30.13,South,190,1.0,0.0,57,0.00,,CLR,0.00,VWS V12.07,2013-02-01 21:38:00,
2013-02-01 15:41:00,-0.4,-11.6,30.13,SSW,199,0.0,2.0,58,0.00,,CLR,0.00,VWS V12.07,2013-02-01 21:41:00,
2013-02-01 15:42:00,-0.4,-11.6,30.13,SSW,207,1.0,2.0,58,0.00,,CLR,0.00,VWS V12.07,2013-02-01 21:42:00,
2013-02-01 15:43:00,-0.4,-11.6,30.13,SSW,207,2.0,2.0,58,0.00,,CLR,0.00,VWS V12.07,2013-02-01 21:43:00,
2013-02-01 15:45:00,-0.2,-11.4,30.13,SSW,209,2.0,2.0,58,0.00,,CLR,0.00,VWS V12.07,2013-02-01 21:45:00,
2013-02-01 15:46:00,-0.2,-11.4,30.13,SSW,203,1.0,2.0,58,0.00,,CLR,0.00,VWS V12.07,2013-02-01 21:46:00,
2013-02-01 15:47:00,-0.2,-11.8,30.13,SSW,203,0.0,2.0,57,0.00,,CLR,0.00,VWS V12.07,2013-02-01 21:47:00,
2013-02-01 15:48:00,-0.2,-11.8,30.13,SSW,203,0.0,2.0,57,0.00,,CLR,0.00,VWS V12.07,2013-02-01 21:48:00,
2013-02-01 15:51:00,-0.2,-11.8,30.13,SSW,211,0.0,4.0,57,0.00,,CLR,0.00,VWS V12.07,2013-02-01 21:51:00,
2013-02-01 15:52:00,-0.2,-11.8,30.13,WSW,252,1.0,4.0,57,0.00,,CLR,0.00,VWS V12.07,2013-02-01 21:52:00,
2013-02-01 15:53:00,-0.4,-12.0,30.13,WSW,252,0.0,4.0,57,0.00,,CLR,0.00,VWS V12.07,2013-02-01 21:53:00,
2013-02-01 15:57:00,-0.4,-11.6,30.13,WSW,252,0.0,4.0,58,0.00,,CLR,0.00,VWS V12.07,2013-02-01 21:57:00,
2013-02-01 15:59:00,-0.6,-11.8,30.13,SW,231,0.0,1.0,58,0.00,,CLR,0.00,VWS V12.07,2013-02-01 21:59:00,
2013-02-01 16:02:00,-0.6,-11.8,30.13,SW,235,1.0,2.0,58,0.00,,CLR,0.00,VWS V12.07,2013-02-01 22:02:00,
2013-02-01 16:03:00,-0.6,-11.8,30.13,SSW,210,2.0,2.0,58,0.00,,CLR,0.00,VWS V12.07,2013-02-01 22:03:00,
2013-02-01 16:04:00,-0.8,-12.4,30.13,SSW,210,0.0,2.0,57,0.00,,CLR,0.00,VWS V12.07,2013-02-01 22:04:00,
2013-02-01 16:07:00,-0.8,-12.0,30.13,SSW,205,0.0,2.0,58,0.00,,CLR,0.00,VWS V12.07,2013-02-01 22:07:00,
2013-02-01 16:08:00,-0.8,-12.4,30.13,SSW,205,0.0,2.0,57,0.00,,CLR,0.00,VWS V12.07,2013-02-01 22:08:00,
2013-02-01 16:09:00,-0.8,-12.0,30.13,SSW,205,0.0,1.0,58,0.00,,CLR,0.00,VWS V12.07,2013-02-01 22:09:00,
2013-02-01 16:12:00,-1.0,-11.9,30.13,SSW,205,0.0,1.0,59,0.00,,CLR,0.00,VWS V12.07,2013-02-01 22:12:00,
2013-02-01 16:13:00,-1.0,-11.9,30.13,SSW,205,0.0,1.0,59,0.00,,CLR,0.00,VWS V12.07,2013-02-01 22:13:00,
2013-02-01 16:14:00,-1.0,-11.9,30.13,SSW,205,0.0,1.0,59,0.00,,CLR,0.00,VWS V12.07,2013-02-01 22:14:00,
2013-02-01 16:17:00,-1.0,-11.5,30.13,SSW,205,0.0,1.0,60,0.00,,CLR,0.00,VWS V12.07,2013-02-01 22:17:00,
2013-02-01 16:18:00,-1.0,-11.5,30.13,SSW,205,0.0,1.0,60,0.00,,CLR,0.00,VWS V12.07,2013-02-01 22:18:00,
2013-02-01 16:19:00,-1.0,-11.5,30.13,SSW,205,0.0,1.0,60,0.00,,CLR,0.00,VWS V12.07,2013-02-01 22:19:00,
2013-02-01 16:22:00,-1.0,-11.2,30.13,SSW,205,0.0,1.0,61,0.00,,CLR,0.00,VWS V12.07,2013-02-01 22:22:00,
2013-02-01 16:23:00,-1.0,-11.2,30.13,SSW,205,0.0,1.0,61,0.00,,CLR,0.00,VWS V12.07,2013-02-01 22:23:00,
2013-02-01 16:24:00,-1.0,-11.2,30.13,SSW,205,0.0,1.0,61,0.00,,CLR,0.00,VWS V12.07,2013-02-01 22:24:00,
2013-02-01 16:25:00,-1.0,-11.5,30.13,SSW,205,0.0,1.0,60,0.00,,CLR,0.00,VWS V12.07,2013-02-01 22:25:00,
2013-02-01 16:27:00,-1.2,-11.7,30.13,SSW,205,0.0,1.0,60,0.00,,CLR,0.00,VWS V12.07,2013-02-01 22:27:00,
2013-02-01 16:28:00,-1.2,-11.7,30.13,SSW,205,0.0,0.0,60,0.00,,CLR,0.00,VWS V12.07,2013-02-01 22:28:00,
2013-02-01 16:29:00,-1.2,-11.7,30.13,SSW,205,0.0,0.0,60,0.00,,CLR,0.00,VWS V12.07,2013-02-01 22:29:00,
2013-02-01 16:30:00,-1.2,-11.7,30.12,SSW,205,0.0,0.0,60,0.00,,CLR,0.00,VWS V12.07,2013-02-01 22:30:00,
2013-02-01 16:33:00,-1.2,-11.7,30.12,SSW,205,0.0,1.0,60,0.00,,CLR,0.00,VWS V12.07,2013-02-01 22:33:00,
2013-02-01 16:34:00,-1.2,-11.7,30.12,SSW,205,0.0,1.0,60,0.00,,CLR,0.00,VWS V12.07,2013-02-01 22:34:00,
2013-02-01 16:35:00,-1.2,-11.7,30.12,SSW,205,0.0,1.0,60,0.00,,CLR,0.00,VWS V12.07,2013-02-01 22:35:00,
2013-02-01 16:38:00,-1.2,-11.7,30.12,SSW,205,0.0,1.0,60,0.00,,CLR,0.00,VWS V12.07,2013-02-01 22:38:00,
2013-02-01 16:39:00,-1.2,-11.4,30.12,SSW,205,0.0,0.0,61,0.00,,CLR,0.00,VWS V12.07,2013-02-01 22:39:00,
2013-02-01 16:40:00,-1.2,-11.4,30.12,SSW,205,0.0,0.0,61,0.00,,CLR,0.00,VWS V12.07,2013-02-01 22:40:00,
2013-02-01 16:43:00,-1.4,-11.6,30.12,SSW,205,0.0,0.0,61,0.00,,CLR,0.00,VWS V12.07,2013-02-01 22:43:00,
2013-02-01 16:44:00,-1.4,-11.6,30.12,SSW,205,0.0,0.0,61,0.00,,CLR,0.00,VWS V12.07,2013-02-01 22:44:00,
2013-02-01 16:45:00,-1.4,-11.6,30.12,SSW,205,0.0,0.0,61,0.00,,CLR,0.00,VWS V12.07,2013-02-01 22:45:00,
2013-02-01 16:46:00,-1.4,-11.6,30.12,SSW,205,0.0,1.0,61,0.00,,CLR,0.00,VWS V12.07,2013-02-01 22:46:00,
2013-02-01 16:48:00,-1.4,-11.6,30.12,SSW,205,1.0,1.0,61,0.00,,CLR,0.00,VWS V12.07,2013-02-01 22:48:00,
2013-02-01 16:49:00,-1.6,-11.4,30.12,SSW,205,0.0,1.0,62,0.00,,CLR,0.00,VWS V12.07,2013-02-01 22:49:00,
2013-02-01 16:50:00,-1.6,-11.4,30.12,SSW,205,0.0,1.0,62,0.00,,CLR,0.00,VWS V12.07,2013-02-01 22:50:00,
2013-02-01 16:51:00,-1.6,-11.8,30.12,SSW,205,0.0,1.0,61,0.00,,CLR,0.00,VWS V12.07,2013-02-01 22:51:00,
2013-02-01 16:53:00,-1.6,-11.8,30.12,SW,216,1.0,1.0,61,0.00,,CLR,0.00,VWS V12.07,2013-02-01 22:53:00,
2013-02-01 16:55:00,-1.6,-11.4,30.12,SW,216,1.0,1.0,62,0.00,,CLR,0.00,VWS V12.07,2013-02-01 22:55:00,
2013-02-01 16:56:00,-1.6,-11.8,30.12,SW,216,0.0,1.0,61,0.00,,CLR,0.00,VWS V12.07,2013-02-01 22:56:00,
2013-02-01 16:59:00,-1.8,-11.9,30.12,SW,216,0.0,0.0,61,0.00,,CLR,0.00,VWS V12.07,2013-02-01 22:59:00,
2013-02-01 17:00:00,-1.8,-11.9,30.14,SW,216,0.0,0.0,61,0.00,,CLR,0.00,VWS V12.07,2013-02-01 23:00:00,
2013-02-01 17:01:00,-1.8,-11.9,30.14,SW,216,0.0,0.0,61,0.00,,CLR,0.00,VWS V12.07,2013-02-01 23:01:00,
2013-02-01 17:04:00,-1.8,-11.9,30.14,SW,216,0.0,0.0,61,0.00,,CLR,0.00,VWS V12.07,2013-02-01 23:04:00,
2013-02-01 17:05:00,-1.8,-11.9,30.14,SW,216,0.0,0.0,61,0.00,,CLR,0.00,VWS V12.07,2013-02-01 23:05:00,
2013-02-01 17:06:00,-1.8,-11.9,30.14,SW,216,0.0,0.0,61,0.00,,CLR,0.00,VWS V12.07,2013-02-01 23:06:00,
2013-02-01 17:09:00,-2.0,-11.8,30.14,SW,216,0.0,1.0,62,0.00,,CLR,0.00,VWS V12.07,2013-02-01 23:09:00,
2013-02-01 17:10:00,-2.0,-12.1,30.14,SW,216,0.0,1.0,61,0.00,,CLR,0.00,VWS V12.07,2013-02-01 23:10:00,
2013-02-01 17:11:00,-2.0,-12.1,30.14,SW,216,0.0,1.0,61,0.00,,CLR,0.00,VWS V12.07,2013-02-01 23:11:00,
2013-02-01 17:12:00,-2.2,-12.3,30.14,SW,216,0.0,1.0,61,0.00,,CLR,0.00,VWS V12.07,2013-02-01 23:12:00,
2013-02-01 17:15:00,-2.2,-12.0,30.14,SW,216,0.0,1.0,62,0.00,,CLR,0.00,VWS V12.07,2013-02-01 23:15:00,
2013-02-01 17:16:00,-2.2,-12.0,30.14,SW,216,1.0,1.0,62,0.00,,CLR,0.00,VWS V12.07,2013-02-01 23:16:00,
2013-02-01 17:17:00,-2.2,-12.0,30.14,SW,216,0.0,1.0,62,0.00,,CLR,0.00,VWS V12.07,2013-02-01 23:17:00,
2013-02-01 17:20:00,-2.4,-12.2,30.14,SW,234,0.0,1.0,62,0.00,,CLR,0.00,VWS V12.07,2013-02-01 23:20:00,
2013-02-01 17:21:00,-2.4,-12.2,30.14,SW,234,0.0,1.0,62,0.00,,CLR,0.00,VWS V12.07,2013-02-01 23:21:00,
2013-02-01 17:22:00,-2.4,-12.2,30.14,SW,234,0.0,0.0,62,0.00,,CLR,0.00,VWS V12.07,2013-02-01 23:22:00,
2013-02-01 17:25:00,-2.4,-11.9,30.14,SW,234,0.0,1.0,63,0.00,,CLR,0.00,VWS V12.07,2013-02-01 23:25:00,
2013-02-01 17:26:00,-2.4,-11.9,30.14,SW,234,0.0,1.0,63,0.00,,CLR,0.00,VWS V12.07,2013-02-01 23:26:00,
2013-02-01 17:27:00,-2.4,-11.6,30.14,SW,232,1.0,1.0,64,0.00,,CLR,0.00,VWS V12.07,2013-02-01 23:27:00,
2013-02-01 17:30:00,-2.4,-11.9,30.14,SW,232,0.0,1.0,63,0.00,,CLR,0.00,VWS V12.07,2013-02-01 23:30:00,
2013-02-01 17:31:00,-2.4,-11.9,30.14,SW,232,0.0,1.0,63,0.00,,CLR,0.00,VWS V12.07,2013-02-01 23:31:00,
2013-02-01 17:33:00,-2.4,-11.9,30.14,SW,232,0.0,1.0,63,0.00,,CLR,0.00,VWS V12.07,2013-02-01 23:33:00,
2013-02-01 17:35:00,-2.4,-11.9,30.14,SW,232,0.0,1.0,63,0.00,,BKN100,0.00,VWS V12.07,2013-02-01 23:35:00,
2013-02-01 17:36:00,-2.4,-11.6,30.14,SW,232,0.0,1.0,64,0.00,,BKN100,0.00,VWS V12.07,2013-02-01 23:36:00,
2013-02-01 17:37:00,-2.4,-11.9,30.14,SW,232,1.0,1.0,63,0.00,,BKN100,0.00,VWS V12.07,2013-02-01 23:37:00,
2013-02-01 17:38:00,-2.4,-11.9,30.14,SSW,203,1.0,1.0,63,0.00,,BKN100,0.00,VWS V12.07,2013-02-01 23:38:00,
2013-02-01 17:40:00,-2.4,-11.6,30.14,SSW,200,0.0,1.0,64,0.00,,BKN100,0.00,VWS V12.07,2013-02-01 23:40:00,
2013-02-01 17:42:00,-2.4,-11.6,30.14,SSW,200,0.0,1.0,64,0.00,,BKN100,0.00,VWS V12.07,2013-02-01 23:42:00,
2013-02-01 17:43:00,-2.4,-11.6,30.14,SSW,200,0.0,1.0,64,0.00,,BKN100,0.00,VWS V12.07,2013-02-01 23:43:00,
2013-02-01 17:45:00,-2.4,-11.6,30.14,SSW,200,1.0,1.0,64,0.00,,BKN100,0.00,VWS V12.07,2013-02-01 23:45:00,
2013-02-01 17:47:00,-2.2,-11.7,30.14,SW,226,1.0,2.0,63,0.00,,BKN100,0.00,VWS V12.07,2013-02-01 23:47:00,
2013-02-01 17:48:00,-2.2,-11.7,30.14,WSW,245,1.0,2.0,63,0.00,,BKN100,0.00,VWS V12.07,2013-02-01 23:48:00,
2013-02-01 17:50:00,-2.4,-11.9,30.14,SSW,207,1.0,2.0,63,0.00,,BKN100,0.00,VWS V12.07,2013-02-01 23:50:00,
2013-02-01 17:52:00,-2.4,-12.2,30.14,WSW,245,1.0,2.0,62,0.00,,BKN100,0.00,VWS V12.07,2013-02-01 23:52:00,
2013-02-01 17:53:00,-2.4,-12.2,30.14,SW,224,2.0,2.0,62,0.00,,BKN100,0.00,VWS V12.07,2013-02-01 23:53:00,
2013-02-01 17:55:00,-2.4,-12.2,30.14,SW,221,0.0,2.0,62,0.00,,BKN100,0.00,VWS V12.07,2013-02-01 23:55:00,
2013-02-01 17:57:00,-2.4,-12.2,30.14,SW,221,1.0,2.0,62,0.00,,BKN100,0.00,VWS V12.07,2013-02-01 23:57:00,
2013-02-01 17:58:00,-2.4,-12.2,30.14,SW,217,1.0,3.0,62,0.00,,BKN100,0.00,VWS V12.07,2013-02-01 23:58:00,
2013-02-01 18:00:00,-2.4,-12.2,30.14,SW,216,2.0,3.0,62,0.00,,BKN100,0.00,VWS V12.07,2013-02-02 00:00:00,
2013-02-01 18:02:00,-2.4,-12.2,30.14,WSW,238,0.0,3.0,62,0.00,,BKN100,0.00,VWS V12.07,2013-02-02 00:02:00,
2013-02-01 18:04:00,-2.4,-12.2,30.14,WSW,238,0.0,3.0,62,0.00,,BKN100,0.00,VWS V12.07,2013-02-02 00:04:00,
2013-02-01 18:06:00,-2.4,-12.5,30.14,SW,219,1.0,3.0,61,0.00,,BKN100,0.00,VWS V12.07,2013-02-02 00:06:00,
2013-02-01 18:07:00,-2.6,-12.7,30.14,SW,219,0.0,3.0,61,0.00,,BKN100,0.00,VWS V12.07,2013-02-02 00:07:00,
2013-02-01 18:09:00,-2.6,-12.7,30.14,SW,223,1.0,2.0,61,0.00,,OVC100,0.00,VWS V12.07,2013-02-02 00:09:00,
2013-02-01 18:11:00,-2.6,-12.4,30.14,SSW,203,0.0,2.0,62,0.00,,OVC100,0.00,VWS V12.07,2013-02-02 00:11:00,
2013-02-01 18:12:00,-2.6,-12.4,30.14,SSW,194,1.0,2.0,62,0.00,,OVC100,0.00,VWS V12.07,2013-02-02 00:12:00,
2013-02-01 18:14:00,-2.6,-12.7,30.14,SW,229,1.0,2.0,61,0.00,,OVC100,0.00,VWS V12.07,2013-02-02 00:14:00,
2013-02-01 18:16:00,-2.6,-12.7,30.15,SSW,203,0.0,2.0,61,0.00,,OVC100,0.00,VWS V12.07,2013-02-02 00:16:00,
2013-02-01 18:17:00,-2.6,-12.7,30.15,SSW,203,0.0,2.0,61,0.00,,OVC100,0.00,VWS V12.07,2013-02-02 00:17:00,
2013-02-01 18:19:00,-2.6,-12.7,30.15,SSW,203,0.0,2.0,61,0.00,,OVC100,0.00,VWS V12.07,2013-02-02 00:19:00,
2013-02-01 18:21:00,-2.6,-12.7,30.15,SW,219,0.0,2.0,61,0.00,,OVC100,0.00,VWS V12.07,2013-02-02 00:21:00,
2013-02-01 18:22:00,-2.6,-12.7,30.15,SW,219,0.0,0.0,61,0.00,,OVC100,0.00,VWS V12.07,2013-02-02 00:22:00,
2013-02-01 18:23:00,-2.6,-12.7,30.15,SW,219,0.0,2.0,61,0.00,,OVC100,0.00,VWS V12.07,2013-02-02 00:23:00,
2013-02-01 18:24:00,-2.6,-12.4,30.15,SW,219,1.0,2.0,62,0.00,,OVC100,0.00,VWS V12.07,2013-02-02 00:24:00,
2013-02-01 18:27:00,-2.6,-12.4,30.15,SW,215,0.0,2.0,62,0.00,,OVC100,0.00,VWS V12.07,2013-02-02 00:27:00,
2013-02-01 18:28:00,-2.6,-12.4,30.15,SW,215,1.0,2.0,62,0.00,,OVC100,0.00,VWS V12.07,2013-02-02 00:28:00,
2013-02-01 18:29:00,-2.6,-12.4,30.15,SW,216,1.0,2.0,62,0.00,,OVC100,0.00,VWS V12.07,2013-02-02 00:29:00,
2013-02-01 18:32:00,-2.6,-12.4,30.15,SW,216,1.0,2.0,62,0.00,,OVC100,0.00,VWS V12.07,2013-02-02 00:32:00,
2013-02-01 18:33:00,-2.6,-12.4,30.15,SW,232,0.0,2.0,62,0.00,,OVC100,0.00,VWS V12.07,2013-02-02 00:33:00,
2013-02-01 18:34:00,-2.6,-12.4,30.15,SW,228,1.0,2.0,62,0.00,,OVC090,0.00,VWS V12.07,2013-02-02 00:34:00,
2013-02-01 18:37:00,-2.6,-12.4,30.15,SW,221,1.0,2.0,62,0.00,,OVC090,0.00,VWS V12.07,2013-02-02 00:37:00,
2013-02-01 18:38:00,-2.6,-12.4,30.15,SW,221,0.0,2.0,62,0.00,,OVC090,0.00,VWS V12.07,2013-02-02 00:38:00,
2013-02-01 18:40:00,-2.6,-12.7,30.15,SSW,206,0.0,2.0,61,0.00,,OVC090,0.00,VWS V12.07,2013-02-02 00:40:00,
2013-02-01 18:42:00,-2.6,-12.7,30.15,SW,215,0.0,2.0,61,0.00,,OVC090,0.00,VWS V12.07,2013-02-02 00:42:00,
2013-02-01 18:43:00,-2.6,-12.7,30.15,SSW,212,2.0,2.0,61,0.00,,OVC090,0.00,VWS V12.07,2013-02-02 00:43:00,
2013-02-01 18:45:00,-2.8,-12.9,30.15,SW,231,0.0,2.0,61,0.00,,OVC090,0.00,VWS V12.07,2013-02-02 00:45:00,
2013-02-01 18:47:00,-2.8,-12.6,30.15,SW,231,1.0,2.0,62,0.00,,OVC090,0.00,VWS V12.07,2013-02-02 00:47:00,
2013-02-01 18:48:00,-2.8,-12.6,30.15,SW,219,0.0,2.0,62,0.00,,OVC090,0.00,VWS V12.07,2013-02-02 00:48:00,
2013-02-01 18:49:00,-2.8,-12.9,30.15,SW,219,0.0,2.0,61,0.00,,OVC090,0.00,VWS V12.07,2013-02-02 00:49:00,
2013-02-01 18:50:00,-2.8,-12.6,30.15,SW,217,0.0,2.0,62,0.00,,OVC090,0.00,VWS V12.07,2013-02-02 00:50:00,
2013-02-01 18:52:00,-2.8,-12.6,30.15,SW,236,1.0,2.0,62,0.00,,OVC090,0.00,VWS V12.07,2013-02-02 00:52:00,
2013-02-01 18:53:00,-2.8,-12.6,30.15,SW,236,0.0,2.0,62,0.00,,OVC090,0.00,VWS V12.07,2013-02-02 00:53:00,
2013-02-01 18:54:00,-2.8,-12.6,30.15,WSW,237,0.0,2.0,62,0.00,,OVC090,0.00,VWS V12.07,2013-02-02 00:54:00,
2013-02-01 18:55:00,-2.8,-12.6,30.15,WSW,239,0.0,2.0,62,0.00,,OVC090,0.00,VWS V12.07,2013-02-02 00:55:00,
2013-02-01 18:58:00,-2.8,-12.6,30.15,WSW,239,0.0,2.0,62,0.00,,OVC090,0.00,VWS V12.07,2013-02-02 00:58:00,
2013-02-01 18:59:00,-2.8,-12.3,30.15,WSW,239,0.0,1.0,63,0.00,,OVC090,0.00,VWS V12.07,2013-02-02 00:59:00,
2013-02-01 19:00:00,-2.8,-12.3,30.15,WSW,239,0.0,1.0,63,0.00,,OVC090,0.00,VWS V12.07,2013-02-02 01:00:00,
2013-02-01 19:03:00,-2.8,-12.3,30.15,WSW,239,0.0,1.0,63,0.00,,OVC090,0.00,VWS V12.07,2013-02-02 01:03:00,
2013-02-01 19:04:00,-2.8,-12.3,30.15,WSW,239,0.0,1.0,63,0.00,,OVC090,0.00,VWS V12.07,2013-02-02 01:04:00,
2013-02-01 19:05:00,-2.8,-12.6,30.15,WSW,239,1.0,1.0,62,0.00,,OVC090,0.00,VWS V12.07,2013-02-02 01:05:00,
2013-02-01 19:08:00,-2.8,-12.6,30.15,WSW,239,0.0,1.0,62,0.00,,OVC090,0.00,VWS V12.07,2013-02-02 01:08:00,
2013-02-01 19:09:00,-2.8,-12.6,30.15,SW,215,0.0,2.0,62,0.00,,OVC090,0.00,VWS V12.07,2013-02-02 01:09:00,
2013-02-01 19:10:00,-2.8,-12.3,30.15,SW,215,0.0,2.0,63,0.00,,OVC090,0.00,VWS V12.07,2013-02-02 01:10:00,
2013-02-01 19:13:00,-2.8,-12.6,30.15,SW,215,1.0,2.0,62,0.00,,OVC090,0.00,VWS V12.07,2013-02-02 01:13:00,
2013-02-01 19:15:00,-2.8,-12.6,30.15,SW,215,0.0,2.0,62,0.00,,OVC090,0.00,VWS V12.07,2013-02-02 01:15:00,
2013-02-01 19:16:00,-2.8,-12.6,30.15,SW,215,0.0,2.0,62,0.00,,OVC090,0.00,VWS V12.07,2013-02-02 01:16:00,
2013-02-01 19:19:00,-2.8,-12.3,30.15,SW,215,1.0,1.0,63,0.00,,OVC090,0.00,VWS V12.07,2013-02-02 01:19:00,
2013-02-01 19:20:00,-2.8,-12.3,30.15,SW,215,0.0,1.0,63,0.00,,OVC090,0.00,VWS V12.07,2013-02-02 01:20:00,
2013-02-01 19:21:00,-2.8,-12.3,30.15,SW,215,0.0,2.0,63,0.00,,OVC090,0.00,VWS V12.07,2013-02-02 01:21:00,
2013-02-01 19:25:00,-2.8,-12.6,30.15,SW,217,1.0,2.0,62,0.00,,OVC090,0.00,VWS V12.07,2013-02-02 01:25:00,
2013-02-01 19:26:00,-2.8,-12.3,30.15,SW,216,1.0,2.0,63,0.00,,OVC090,0.00,VWS V12.07,2013-02-02 01:26:00,
2013-02-01 19:30:00,-2.8,-12.6,30.16,SW,221,1.0,3.0,62,0.00,,OVC090,0.00,VWS V12.07,2013-02-02 01:30:00,
2013-02-01 19:31:00,-2.8,-12.6,30.16,SW,221,0.0,3.0,62,0.00,,OVC090,0.00,VWS V12.07,2013-02-02 01:31:00,
2013-02-01 19:35:00,-3.1,-12.9,30.16,WSW,253,1.0,3.0,62,0.00,,OVC090,0.00,VWS V12.07,2013-02-02 01:35:00,
2013-02-01 19:36:00,-3.1,-13.2,30.16,SW,217,1.0,3.0,61,0.00,,OVC090,0.00,VWS V12.07,2013-02-02 01:36:00,
2013-02-01 19:37:00,-3.1,-13.2,30.16,SW,219,0.0,3.0,61,0.00,,OVC090,0.00,VWS V12.07,2013-02-02 01:37:00,
2013-02-01 19:40:00,-3.1,-13.2,30.16,SW,226,0.0,2.0,61,0.00,,OVC090,0.00,VWS V12.07,2013-02-02 01:40:00,
2013-02-01 19:41:00,-3.1,-12.9,30.16,SW,226,1.0,2.0,62,0.00,,OVC090,0.00,VWS V12.07,2013-02-02 01:41:00,
2013-02-01 19:42:00,-3.1,-12.9,30.16,SW,226,0.0,2.0,62,0.00,,OVC090,0.00,VWS V12.07,2013-02-02 01:42:00,
2013-02-01 19:46:00,-3.1,-12.5,30.15,SW,226,0.0,2.0,63,0.00,,OVC090,0.00,VWS V12.07,2013-02-02 01:46:00,
2013-02-01 19:47:00,-3.1,-12.9,30.15,SW,226,0.0,2.0,62,0.00,,OVC090,0.00,VWS V12.07,2013-02-02 01:47:00,
2013-02-01 19:51:00,-3.1,-12.5,30.15,WSW,252,0.0,1.0,63,0.00,,OVC080,0.00,VWS V12.07,2013-02-02 01:51:00,
2013-02-01 19:52:00,-3.1,-12.9,30.15,SSW,200,0.0,1.0,62,0.00,,OVC080,0.00,VWS V12.07,2013-02-02 01:52:00,
2013-02-01 19:56:00,-3.1,-12.9,30.15,SSW,200,0.0,1.0,62,0.00,,OVC080,0.00,VWS V12.07,2013-02-02 01:56:00,
2013-02-01 19:57:00,-3.1,-12.5,30.15,SSW,200,0.0,1.0,63,0.00,,OVC080,0.00,VWS V12.07,2013-02-02 01:57:00,
2013-02-01 20:01:00,-3.1,-12.5,30.15,SSW,204,0.0,1.0,63,0.00,,OVC080,0.00,VWS V12.07,2013-02-02 02:01:00,
2013-02-01 20:02:00,-3.1,-12.5,30.15,SSW,204,0.0,1.0,63,0.00,,OVC080,0.00,VWS V12.07,2013-02-02 02:02:00,
2013-02-01 20:03:00,-3.1,-12.5,30.15,SSW,203,1.0,1.0,63,0.00,,OVC080,0.00,VWS V12.07,2013-02-02 02:03:00,
2013-02-01 20:07:00,-3.1,-12.5,30.15,SW,221,0.0,2.0,63,0.00,,OVC080,0.00,VWS V12.07,2013-02-02 02:07:00,
2013-02-01 20:08:00,-3.1,-12.5,30.15,SW,221,0.0,1.0,63,0.00,,OVC080,0.00,VWS V12.07,2013-02-02 02:08:00,
2013-02-01 20:12:00,-3.1,-12.5,30.15,SW,221,0.0,1.0,63,0.00,,OVC080,0.00,VWS V12.07,2013-02-02 02:12:00,
2013-02-01 20:13:00,-3.1,-12.5,30.15,SW,233,1.0,2.0,63,0.00,,OVC080,0.00,VWS V12.07,2013-02-02 02:13:00,
2013-02-01 20:17:00,-3.1,-12.9,30.15,SW,235,0.0,2.0,62,0.00,,OVC080,0.00,VWS V12.07,2013-02-02 02:17:00,
2013-02-01 20:18:00,-3.1,-12.9,30.15,SW,219,1.0,2.0,62,0.00,,OVC080,0.00,VWS V12.07,2013-02-02 02:18:00,
2013-02-01 20:19:00,-3.1,-12.9,30.15,SW,221,0.0,2.0,62,0.00,,OVC080,0.00,VWS V12.07,2013-02-02 02:19:00,
2013-02-01 20:22:00,-3.1,-12.9,30.15,SW,221,1.0,0.0,62,0.00,,OVC080,0.00,VWS V12.07,2013-02-02 02:22:00,
2013-02-01 20:23:00,-3.1,-12.9,30.15,SW,221,0.0,2.0,62,0.00,,OVC080,0.00,VWS V12.07,2013-02-02 02:23:00,
2013-02-01 20:24:00,-3.1,-12.9,30.15,SW,227,1.0,2.0,62,0.00,,OVC080,0.00,VWS V12.07,2013-02-02 02:24:00,
2013-02-01 20:28:00,-3.3,-12.7,30.15,SW,228,1.0,2.0,63,0.00,,OVC080,0.00,VWS V12.07,2013-02-02 02:28:00,
2013-02-01 20:29:00,-3.3,-13.1,30.15,SW,228,0.0,1.0,62,0.00,,OVC080,0.00,VWS V12.07,2013-02-02 02:29:00,
2013-02-01 20:33:00,-3.1,-12.5,30.15,South,191,1.0,2.0,63,0.00,,OVC080,0.00,VWS V12.07,2013-02-02 02:33:00,
2013-02-01 20:34:00,-3.1,-12.9,30.15,South,191,0.0,2.0,62,0.00,,OVC080,0.00,VWS V12.07,2013-02-02 02:34:00,
2013-02-01 20:38:00,-3.1,-12.9,30.15,SSW,204,0.0,1.0,62,0.00,,OVC080,0.00,VWS V12.07,2013-02-02 02:38:00,
2013-02-01 20:39:00,-3.1,-12.9,30.15,SSW,204,0.0,1.0,62,0.00,,OVC080,0.00,VWS V12.07,2013-02-02 02:39:00,
2013-02-01 20:43:00,-3.3,-12.7,30.15,SSW,204,0.0,1.0,63,0.00,,OVC080,0.00,VWS V12.07,2013-02-02 02:43:00,
2013-02-01 20:44:00,-3.3,-12.7,30.15,SSW,204,0.0,1.0,63,0.00,,OVC080,0.00,VWS V12.07,2013-02-02 02:44:00,
2013-02-01 20:45:00,-3.3,-12.7,30.15,SSW,204,0.0,1.0,63,0.00,,OVC080,0.00,VWS V12.07,2013-02-02 02:45:00,
2013-02-01 20:49:00,-3.3,-12.7,30.15,SSW,206,0.0,1.0,63,0.00,,OVC080,0.00,VWS V12.07,2013-02-02 02:49:00,
2013-02-01 20:50:00,-3.3,-12.7,30.15,SSW,206,0.0,1.0,63,0.00,,OVC080,0.00,VWS V12.07,2013-02-02 02:50:00,
2013-02-01 20:54:00,-3.3,-12.7,30.15,SSW,206,0.0,1.0,63,0.00,,OVC080,0.00,VWS V12.07,2013-02-02 02:54:00,
2013-02-01 20:55:00,-3.3,-12.7,30.15,SSW,206,1.0,1.0,63,0.00,,OVC080,0.00,VWS V12.07,2013-02-02 02:55:00,
2013-02-01 20:59:00,-3.3,-13.1,30.15,SSW,212,0.0,1.0,62,0.00,,OVC080,0.00,VWS V12.07,2013-02-02 02:59:00,
2013-02-01 21:00:00,-3.3,-13.1,30.14,SSW,212,0.0,1.0,62,0.00,,OVC080,0.00,VWS V12.07,2013-02-02 03:00:00,
2013-02-01 21:04:00,-3.3,-13.1,30.14,SW,221,1.0,1.0,62,0.00,,OVC080,0.00,VWS V12.07,2013-02-02 03:04:00,
2013-02-01 21:05:00,-3.3,-13.1,30.14,SW,221,0.0,2.0,62,0.00,,OVC080,0.00,VWS V12.07,2013-02-02 03:05:00,
2013-02-01 21:09:00,-3.3,-12.7,30.14,SSW,203,0.0,1.0,63,0.00,,OVC080,0.00,VWS V12.07,2013-02-02 03:09:00,
2013-02-01 21:10:00,-3.3,-12.7,30.14,SSW,203,1.0,1.0,63,0.00,,OVC080,0.00,VWS V12.07,2013-02-02 03:10:00,
2013-02-01 21:11:00,-3.3,-12.7,30.14,SSW,203,0.0,1.0,63,0.00,,OVC080,0.00,VWS V12.07,2013-02-02 03:11:00,
2013-02-01 21:14:00,-3.3,-12.7,30.14,SSW,203,0.0,1.0,63,0.00,,OVC080,0.00,VWS V12.07,2013-02-02 03:14:00,
2013-02-01 21:15:00,-3.3,-13.1,30.14,SW,222,0.0,1.0,62,0.00,,OVC080,0.00,VWS V12.07,2013-02-02 03:15:00,
2013-02-01 21:16:00,-3.3,-13.1,30.14,SW,222,0.0,1.0,62,0.00,,OVC080,0.00,VWS V12.07,2013-02-02 03:16:00,
2013-02-01 21:19:00,-3.5,-13.2,30.14,SW,222,0.0,1.0,62,0.00,,OVC080,0.00,VWS V12.07,2013-02-02 03:19:00,
2013-02-01 21:20:00,-3.5,-13.2,30.14,SW,222,0.0,1.0,62,0.00,,OVC080,0.00,VWS V12.07,2013-02-02 03:20:00,
2013-02-01 21:21:00,-3.5,-13.2,30.14,SW,222,0.0,1.0,62,0.00,,OVC080,0.00,VWS V12.07,2013-02-02 03:21:00,
2013-02-01 21:24:00,-3.5,-13.2,30.14,SW,228,1.0,2.0,62,0.00,,OVC080,0.00,VWS V12.07,2013-02-02 03:24:00,
2013-02-01 21:25:00,-3.5,-13.2,30.14,SW,231,0.0,2.0,62,0.00,,OVC080,0.00,VWS V12.07,2013-02-02 03:25:00,
2013-02-01 21:26:00,-3.5,-13.2,30.14,SW,231,0.0,2.0,62,0.00,,OVC080,0.00,VWS V12.07,2013-02-02 03:26:00,
2013-02-01 21:27:00,-3.5,-13.2,30.14,SW,232,0.0,2.0,62,0.00,,OVC080,0.00,VWS V12.07,2013-02-02 03:27:00,
2013-02-01 21:29:00,-3.7,-13.4,30.14,SW,232,0.0,1.0,62,0.00,,OVC080,0.00,VWS V12.07,2013-02-02 03:29:00,
2013-02-01 21:30:00,-3.7,-13.4,30.14,SW,232,0.0,1.0,62,0.00,,OVC080,0.00,VWS V12.07,2013-02-02 03:30:00,
2013-02-01 21:31:00,-3.7,-13.4,30.14,SW,232,0.0,1.0,62,0.00,,OVC080,0.00,VWS V12.07,2013-02-02 03:31:00,
2013-02-01 21:32:00,-3.7,-13.1,30.14,SW,232,0.0,1.0,63,0.00,,OVC080,0.00,VWS V12.07,2013-02-02 03:32:00,
2013-02-01 21:34:00,-3.7,-13.4,30.14,SW,232,0.0,1.0,62,0.00,,OVC070,0.00,VWS V12.07,2013-02-02 03:34:00,
2013-02-01 21:35:00,-3.7,-13.4,30.14,SW,232,0.0,1.0,62,0.00,,OVC070,0.00,VWS V12.07,2013-02-02 03:35:00,
2013-02-01 21:36:00,-3.7,-13.4,30.14,SW,232,0.0,1.0,62,0.00,,OVC070,0.00,VWS V12.07,2013-02-02 03:36:00,
2013-02-01 21:37:00,-3.7,-13.4,30.14,SW,232,0.0,1.0,62,0.00,,OVC070,0.00,VWS V12.07,2013-02-02 03:37:00,
2013-02-01 21:39:00,-3.7,-13.4,30.14,SW,232,0.0,1.0,62,0.00,,OVC070,0.00,VWS V12.07,2013-02-02 03:39:00,
2013-02-01 21:40:00,-3.7,-13.4,30.14,SW,232,0.0,1.0,62,0.00,,OVC070,0.00,VWS V12.07,2013-02-02 03:40:00,
2013-02-01 21:41:00,-3.7,-13.4,30.14,SW,232,0.0,1.0,62,0.00,,OVC070,0.00,VWS V12.07,2013-02-02 03:41:00,
2013-02-01 21:42:00,-3.7,-13.4,30.14,SW,232,0.0,1.0,62,0.00,,OVC070,0.00,VWS V12.07,2013-02-02 03:42:00,
2013-02-01 21:44:00,-3.7,-13.4,30.14,SW,232,0.0,1.0,62,0.00,,OVC070,0.00,VWS V12.07,2013-02-02 03:44:00,
2013-02-01 21:45:00,-3.7,-13.1,30.14,SW,232,0.0,1.0,63,0.00,,OVC070,0.00,VWS V12.07,2013-02-02 03:45:00,
2013-02-01 21:47:00,-3.7,-13.1,30.14,SW,232,0.0,1.0,63,0.00,,OVC070,0.00,VWS V12.07,2013-02-02 03:47:00,
2013-02-01 21:50:00,-3.7,-13.1,30.14,SW,232,0.0,0.0,63,0.00,,OVC070,0.00,VWS V12.07,2013-02-02 03:50:00,
2013-02-01 21:52:00,-3.7,-13.1,30.14,SW,232,0.0,0.0,63,0.00,,OVC070,0.00,VWS V12.07,2013-02-02 03:52:00,
2013-02-01 21:53:00,-3.7,-13.1,30.14,SW,232,0.0,0.0,63,0.00,,OVC070,0.00,VWS V12.07,2013-02-02 03:53:00,
2013-02-01 21:55:00,-3.7,-12.8,30.14,SW,232,0.0,0.0,64,0.00,,OVC070,0.00,VWS V12.07,2013-02-02 03:55:00,
2013-02-01 21:56:00,-3.7,-12.8,30.14,SW,232,0.0,0.0,64,0.00,,OVC070,0.00,VWS V12.07,2013-02-02 03:56:00,
2013-02-01 21:57:00,-3.7,-12.8,30.14,SW,232,0.0,1.0,64,0.00,,OVC070,0.00,VWS V12.07,2013-02-02 03:57:00,
2013-02-01 21:58:00,-3.7,-13.1,30.14,SW,232,0.0,1.0,63,0.00,,OVC070,0.00,VWS V12.07,2013-02-02 03:58:00,
2013-02-01 22:00:00,-3.7,-13.1,30.14,SW,232,0.0,1.0,63,0.00,,OVC070,0.00,VWS V12.07,2013-02-02 04:00:00,
2013-02-01 22:01:00,-3.9,-13.3,30.14,SW,232,0.0,1.0,63,0.00,,OVC070,0.00,VWS V12.07,2013-02-02 04:01:00,
2013-02-01 22:02:00,-3.9,-13.3,30.14,SW,232,0.0,1.0,63,0.00,,OVC070,0.00,VWS V12.07,2013-02-02 04:02:00,
2013-02-01 22:04:00,-3.9,-13.0,30.14,SW,232,0.0,1.0,64,0.00,,OVC070,0.00,VWS V12.07,2013-02-02 04:04:00,
2013-02-01 22:05:00,-3.7,-12.8,30.14,SW,232,0.0,1.0,64,0.00,,OVC070,0.00,VWS V12.07,2013-02-02 04:05:00,
2013-02-01 22:06:00,-3.9,-13.0,30.14,SW,232,0.0,1.0,64,0.00,,OVC070,0.00,VWS V12.07,2013-02-02 04:06:00,
2013-02-01 22:07:00,-3.9,-13.0,30.14,SW,232,0.0,1.0,64,0.00,,OVC070,0.00,VWS V12.07,2013-02-02 04:07:00,
2013-02-01 22:09:00,-3.7,-12.8,30.14,SW,232,0.0,0.0,64,0.00,,OVC070,0.00,VWS V12.07,2013-02-02 04:09:00,
2013-02-01 22:10:00,-3.7,-12.8,30.14,SW,232,0.0,0.0,64,0.00,,OVC070,0.00,VWS V12.07,2013-02-02 04:10:00,
2013-02-01 22:11:00,-3.7,-12.8,30.14,SW,232,0.0,0.0,64,0.00,,OVC070,0.00,VWS V12.07,2013-02-02 04:11:00,
2013-02-01 22:13:00,-3.7,-12.8,30.14,SW,232,0.0,0.0,64,0.00,,OVC070,0.00,VWS V12.07,2013-02-02 04:13:00,
2013-02-01 22:14:00,-3.7,-12.8,30.14,SW,232,0.0,0.0,64,0.00,,OVC070,0.00,VWS V12.07,2013-02-02 04:14:00,
2013-02-01 22:15:00,-3.7,-12.8,30.14,SW,232,0.0,0.0,64,0.00,,OVC070,0.00,VWS V12.07,2013-02-02 04:15:00,
2013-02-01 22:16:00,-3.7,-12.8,30.14,SW,232,0.0,0.0,64,0.00,,OVC070,0.00,VWS V12.07,2013-02-02 04:16:00,
2013-02-01 22:18:00,-3.7,-12.8,30.14,SW,232,0.0,0.0,64,0.00,,OVC070,0.00,VWS V12.07,2013-02-02 04:18:00,
2013-02-01 22:19:00,-3.7,-12.8,30.14,SW,232,0.0,0.0,64,0.00,,OVC070,0.00,VWS V12.07,2013-02-02 04:19:00,
2013-02-01 22:20:00,-3.7,-12.8,30.14,SW,232,0.0,0.0,64,0.00,,OVC070,0.00,VWS V12.07,2013-02-02 04:20:00,
2013-02-01 22:22:00,-3.7,-12.8,30.14,SW,232,0.0,0.0,64,0.00,,OVC070,0.00,VWS V12.07,2013-02-02 04:22:00,
2013-02-01 22:23:00,-3.7,-12.8,30.14,SW,232,0.0,0.0,64,0.00,,OVC070,0.00,VWS V12.07,2013-02-02 04:23:00,
2013-02-01 22:24:00,-3.7,-12.5,30.14,SW,232,0.0,0.0,65,0.00,,OVC070,0.00,VWS V12.07,2013-02-02 04:24:00,
2013-02-01 22:26:00,-3.7,-12.5,30.14,SW,232,0.0,0.0,65,0.00,,OVC070,0.00,VWS V12.07,2013-02-02 04:26:00,
2013-02-01 22:27:00,-3.7,-12.5,30.14,SW,232,0.0,0.0,65,0.00,,OVC070,0.00,VWS V12.07,2013-02-02 04:27:00,
2013-02-01 22:28:00,-3.7,-12.5,30.14,SW,232,0.0,0.0,65,0.00,,OVC070,0.00,VWS V12.07,2013-02-02 04:28:00,
2013-02-01 22:29:00,-3.7,-12.5,30.14,SW,232,0.0,0.0,65,0.00,,OVC070,0.00,VWS V12.07,2013-02-02 04:29:00,
2013-02-01 22:31:00,-3.7,-12.5,30.14,SW,232,0.0,0.0,65,0.00,,OVC070,0.00,VWS V12.07,2013-02-02 04:31:00,
2013-02-01 22:32:00,-3.7,-12.5,30.14,SW,232,0.0,0.0,65,0.00,,OVC070,0.00,VWS V12.07,2013-02-02 04:32:00,
2013-02-01 22:33:00,-3.7,-12.5,30.14,SW,232,0.0,0.0,65,0.00,,OVC070,0.00,VWS V12.07,2013-02-02 04:33:00,
2013-02-01 22:34:00,-3.7,-12.5,30.14,SW,232,0.0,0.0,65,0.00,,OVC070,0.00,VWS V12.07,2013-02-02 04:34:00,
2013-02-01 22:36:00,-3.7,-12.5,30.14,SW,232,0.0,0.0,65,0.00,,OVC070,0.00,VWS V12.07,2013-02-02 04:36:00,
2013-02-01 22:37:00,-3.7,-12.5,30.14,SW,232,0.0,0.0,65,0.00,,OVC070,0.00,VWS V12.07,2013-02-02 04:37:00,
2013-02-01 22:38:00,-3.7,-12.5,30.14,SW,232,0.0,0.0,65,0.00,,OVC070,0.00,VWS V12.07,2013-02-02 04:38:00,
2013-02-01 22:39:00,-3.7,-12.5,30.14,SW,232,0.0,1.0,65,0.00,,OVC070,0.00,VWS V12.07,2013-02-02 04:39:00,
2013-02-01 22:41:00,-3.7,-12.5,30.14,SW,232,0.0,1.0,65,0.00,,OVC070,0.00,VWS V12.07,2013-02-02 04:41:00,
2013-02-01 22:42:00,-3.7,-12.5,30.14,SW,232,0.0,1.0,65,0.00,,OVC070,0.00,VWS V12.07,2013-02-02 04:42:00,
2013-02-01 22:43:00,-3.7,-12.5,30.14,SW,232,0.0,1.0,65,0.00,,OVC070,0.00,VWS V12.07,2013-02-02 04:43:00,
2013-02-01 22:45:00,-3.9,-12.7,30.14,SW,232,0.0,1.0,65,0.00,,OVC070,0.00,VWS V12.07,2013-02-02 04:45:00,
2013-02-01 22:46:00,-3.9,-12.7,30.14,SW,232,0.0,1.0,65,0.00,,OVC070,0.00,VWS V12.07,2013-02-02 04:46:00,
2013-02-01 22:47:00,-3.9,-12.7,30.14,SW,232,0.0,1.0,65,0.00,,OVC070,0.00,VWS V12.07,2013-02-02 04:47:00,
2013-02-01 22:49:00,-3.9,-13.0,30.14,SW,232,0.0,1.0,64,0.00,,OVC070,0.00,VWS V12.07,2013-02-02 04:49:00,
2013-02-01 22:50:00,-3.9,-12.7,30.14,SW,232,0.0,1.0,65,0.00,,OVC070,0.00,VWS V12.07,2013-02-02 04:50:00,
2013-02-01 22:51:00,-3.9,-12.7,30.14,SW,232,0.0,1.0,65,0.00,,OVC070,0.00,VWS V12.07,2013-02-02 04:51:00,
2013-02-01 22:52:00,-3.9,-12.7,30.14,SW,232,0.0,1.0,65,0.00,,OVC070,0.00,VWS V12.07,2013-02-02 04:52:00,
2013-02-01 22:54:00,-3.9,-13.0,30.14,SW,232,0.0,0.0,64,0.00,,OVC070,0.00,VWS V12.07,2013-02-02 04:54:00,
2013-02-01 22:55:00,-3.9,-13.0,30.14,SW,232,0.0,1.0,64,0.00,,OVC070,0.00,VWS V12.07,2013-02-02 04:55:00,
2013-02-01 22:57:00,-3.9,-13.0,30.14,SW,232,0.0,1.0,64,0.00,,OVC070,0.00,VWS V12.07,2013-02-02 04:57:00,
2013-02-01 22:59:00,-3.9,-13.0,30.14,SW,232,0.0,1.0,64,0.00,,OVC070,0.00,VWS V12.07,2013-02-02 04:59:00,
2013-02-01 23:00:00,-3.9,-13.0,30.13,SW,232,0.0,1.0,64,0.00,,OVC070,0.00,VWS V12.07,2013-02-02 05:00:00,
2013-02-01 23:01:00,-3.9,-13.0,30.13,SW,232,0.0,1.0,64,0.00,,OVC070,0.00,VWS V12.07,2013-02-02 05:01:00,
2013-02-01 23:05:00,-3.9,-12.7,30.13,SW,232,0.0,1.0,65,0.00,,OVC070,0.00,VWS V12.07,2013-02-02 05:05:00,
2013-02-01 23:06:00,-3.9,-12.7,30.13,SW,232,0.0,1.0,65,0.00,,OVC070,0.00,VWS V12.07,2013-02-02 05:06:00,
2013-02-01 23:10:00,-3.9,-12.7,30.13,SW,232,0.0,1.0,65,0.00,,OVC070,0.00,VWS V12.07,2013-02-02 05:10:00,
2013-02-01 23:11:00,-3.9,-12.7,30.13,SW,232,0.0,1.0,65,0.00,,OVC070,0.00,VWS V12.07,2013-02-02 05:11:00,
2013-02-01 23:15:00,-3.9,-12.7,30.13,SW,232,0.0,1.0,65,0.00,,OVC070,0.00,VWS V12.07,2013-02-02 05:15:00,
2013-02-01 23:16:00,-3.9,-12.7,30.13,SW,232,0.0,1.0,65,0.00,,OVC070,0.00,VWS V12.07,2013-02-02 05:16:00,
2013-02-01 23:20:00,-3.9,-12.7,30.13,SW,232,0.0,1.0,65,0.00,,OVC070,0.00,VWS V12.07,2013-02-02 05:20:00,
2013-02-01 23:21:00,-3.9,-12.7,30.13,SW,232,0.0,1.0,65,0.00,,OVC070,0.00,VWS V12.07,2013-02-02 05:21:00,
2013-02-01 23:22:00,-3.9,-12.7,30.13,SW,232,0.0,1.0,65,0.00,,OVC070,0.00,VWS V12.07,2013-02-02 05:22:00,
2013-02-01 23:26:00,-3.9,-12.7,30.13,SW,232,0.0,1.0,65,0.00,,OVC070,0.00,VWS V12.07,2013-02-02 05:26:00,
2013-02-01 23:27:00,-3.9,-12.7,30.13,SW,232,0.0,1.0,65,0.00,,OVC070,0.00,VWS V12.07,2013-02-02 05:27:00,
2013-02-01 23:31:00,-3.9,-12.7,30.13,SW,232,0.0,1.0,65,0.00,,OVC070,0.00,VWS V12.07,2013-02-02 05:31:00,
2013-02-01 23:32:00,-3.9,-12.7,30.13,SW,232,0.0,1.0,65,0.00,,OVC070,0.00,VWS V12.07,2013-02-02 05:32:00,
2013-02-01 23:36:00,-3.9,-12.4,30.13,SW,232,0.0,1.0,66,0.00,,OVC070,0.00,VWS V12.07,2013-02-02 05:36:00,
2013-02-01 23:37:00,-3.9,-12.4,30.13,SW,232,0.0,1.0,66,0.00,,OVC070,0.00,VWS V12.07,2013-02-02 05:37:00,
2013-02-01 23:42:00,-3.9,-12.7,30.13,SW,232,0.0,0.0,65,0.00,,OVC070,0.00,VWS V12.07,2013-02-02 05:42:00,
2013-02-01 23:43:00,-3.9,-12.7,30.13,SW,232,0.0,0.0,65,0.00,,OVC070,0.00,VWS V12.07,2013-02-02 05:43:00,
2013-02-01 23:47:00,-3.9,-12.7,30.13,SW,232,0.0,0.0,65,0.00,,OVC070,0.00,VWS V12.07,2013-02-02 05:47:00,
2013-02-01 23:48:00,-4.1,-12.9,30.13,SW,232,0.0,0.0,65,0.00,,OVC070,0.00,VWS V12.07,2013-02-02 05:48:00,
2013-02-01 23:52:00,-4.1,-12.9,30.13,SW,232,0.0,1.0,65,0.00,,OVC070,0.00,VWS V12.07,2013-02-02 05:52:00,
2013-02-01 23:53:00,-4.1,-12.9,30.13,SW,232,0.0,1.0,65,0.00,,OVC070,0.00,VWS V12.07,2013-02-02 05:53:00,
2013-02-01 23:57:00,-4.1,-12.6,30.13,SW,232,0.0,1.0,66,0.00,,OVC070,0.00,VWS V12.07,2013-02-02 05:57:00,
2013-02-01 23:58:00,-4.1,-12.6,30.13,SW,232,0.0,1.0,66,0.00,,OVC070,0.00,VWS V12.07,2013-02-02 05:58:00,